KC5DAQ-22 Weather Reports


Display with metric or nautical units.
time (UTC)temp
F
wind
direction
speed
MPH
gust
MPH
rain 1hr
in
rain 24hr
in
rain mn
in
humidity
%
barometer
mb
20260901184450 86 326 3.0 4.0 0.00 0.00 0.00 77 1012.4
20260901184349 86 326 3.0 4.0 0.00 0.00 0.00 77 1012.3
20260901184246 86 326 2.0 4.0 0.00 0.00 0.00 78 1012.4
20260901184147 86 326 2.0 4.0 0.00 0.00 0.00 78 1012.3
20260901184045 86 307 2.0 4.0 0.00 0.00 0.00 77 1012.3
20260901183943 86 307 2.0 4.0 0.00 0.00 0.00 77 1012.3
20260901183842 86 307 2.0 5.0 0.00 0.00 0.00 77 1012.4
20260901183738 86 307 2.0 5.0 0.00 0.00 0.00 78 1012.3
20260901183635 86 307 2.0 5.0 0.00 0.00 0.00 78 1012.3
20260901183533 86 306 3.0 5.0 0.00 0.00 0.00 77 1012.4
20260901183432 86 307 2.0 5.0 0.00 0.00 0.00 78 1012.3
20260901183330 86 326 2.0 5.0 0.00 0.00 0.00 77 1012.4
20260901183232 86 326 2.0 5.0 0.00 0.00 0.00 77 1012.4
20260901183132 86 326 3.0 5.0 0.00 0.00 0.00 77 1012.4
20260901183031 86 326 3.0 5.0 0.00 0.00 0.00 78 1012.4
20260901182931 86 326 2.0 5.0 0.00 0.00 0.00 78 1012.4
20260901182831 86 343 2.0 4.0 0.00 0.00 0.00 77 1012.5
20260901182731 86 343 2.0 4.0 0.00 0.00 0.00 77 1012.4
20260901182630 86 343 2.0 4.0 0.00 0.00 0.00 77 1012.4
20260901182532 86 343 2.0 4.0 0.00 0.00 0.00 77 1012.4
20260901182431 86 343 3.0 4.0 0.00 0.00 0.00 78 1012.5
20260901182332 86 343 2.0 4.0 0.00 0.00 0.00 79 1012.5
20260901182232 86 343 2.0 4.0 0.00 0.00 0.00 79 1012.5
20260901182132 86 343 3.0 4.0 0.00 0.00 0.00 79 1012.6
20260901182031 86 344 3.0 4.0 0.00 0.00 0.00 78 1012.6
20260901181932 86 354 2.0 4.0 0.00 0.00 0.00 77 1012.6
20260901181832 86 0 2.0 4.0 0.00 0.00 0.00 77 1012.7
20260901181731 86 0 2.0 4.0 0.00 0.00 0.00 78 1012.6
20260901181630 86 0 2.0 4.0 0.00 0.00 0.00 79 1012.7
20260901181530 86 0 3.0 4.0 0.00 0.00 0.00 78 1012.7
20260901181430 86 0 3.0 4.0 0.00 0.00 0.00 79 1012.7
20260901181330 86 0 3.0 4.0 0.00 0.00 0.00 80 1012.7
20260901181228 86 0 3.0 4.0 0.00 0.00 0.00 80 1012.8
20260901181126 86 350 3.0 4.0 0.00 0.00 0.00 81 1012.8
20260901181026 86 0 2.0 4.0 0.00 0.00 0.00 80 1012.7
20260901180923 86 0 2.0 4.0 0.00 0.00 0.00 81 1012.8
20260901180823 87 0 2.0 4.0 0.00 0.00 0.00 80 1012.8
20260901180721 87 8 1.0 3.0 0.00 0.00 0.00 81 1012.9
20260901180618 87 8 1.0 3.0 0.00 0.00 0.00 82 1012.9
20260901180516 87 8 1.0 3.0 0.00 0.00 0.00 81 1012.8
20260901180417 87 8 1.0 3.0 0.00 0.00 0.00 81 1012.9
20260901180316 86 10 1.0 3.0 0.00 0.00 0.00 80 1012.9
20260901180213 86 10 2.0 3.0 0.00 0.00 0.00 80 1012.9
20260901180111 86 10 2.0 3.0 0.00 0.00 0.00 77 1012.8
20260901180012 87 10 2.0 3.0 0.00 0.00 0.00 81 1013.0
20260901175909 87 30 1.0 3.0 0.00 0.00 0.00 79 1012.9
20260901175809 87 30 0.0 3.0 0.00 0.00 0.00 80 1012.9
20260901175712 87 30 0.0 3.0 0.00 0.00 0.00 81 1013.0
20260901175610 86 30 0.0 3.0 0.00 0.00 0.00 80 1013.1
20260901175509 86 30 0.0 3.0 0.00 0.00 0.00 78 1013.0
20260901175409 86 30 1.0 3.0 0.00 0.00 0.00 77 1013.1
20260901175310 86 30 1.0 3.0 0.00 0.00 0.00 78 1013.0
20260901175211 86 30 1.0 3.0 0.00 0.00 0.00 78 1013.1
20260901175109 86 30 1.0 3.0 0.00 0.00 0.00 78 1013.1
20260901175010 86 30 1.0 3.0 0.00 0.00 0.00 78 1013.1
20260901174910 86 31 1.0 4.0 0.00 0.00 0.00 78 1013.1
20260901174809 86 31 2.0 4.0 0.00 0.00 0.00 78 1013.1
20260901174709 86 31 1.0 4.0 0.00 0.00 0.00 78 1013.1
20260901174610 86 32 1.0 4.0 0.00 0.00 0.00 77 1013.2
20260901174509 86 32 2.0 5.0 0.00 0.00 0.00 76 1013.3
20260901174409 86 31 2.0 5.0 0.00 0.00 0.00 77 1013.3
20260901174311 86 31 1.0 5.0 0.00 0.00 0.00 79 1013.4
20260901174210 86 31 1.0 5.0 0.00 0.00 0.00 78 1013.3
20260901174110 86 31 2.0 5.0 0.00 0.00 0.00 77 1013.3
20260901174015 86 31 2.0 5.0 0.00 0.00 0.00 77 1013.4
20260901173911 86 31 3.0 5.0 0.00 0.00 0.00 77 1013.5
20260901173809 86 31 2.0 5.0 0.00 0.00 0.00 77 1013.4
20260901173709 86 31 3.0 5.0 0.00 0.00 0.00 77 1013.5
20260901173610 86 62 3.0 5.0 0.00 0.00 0.00 77 1013.5
20260901173509 86 51 1.0 5.0 0.00 0.00 0.00 78 1013.5
20260901173409 86 49 2.0 5.0 0.00 0.00 0.00 78 1013.6
20260901173309 86 51 3.0 5.0 0.00 0.00 0.00 77 1013.6
20260901173210 86 51 4.0 5.0 0.00 0.00 0.00 76 1013.7
20260901173109 86 49 4.0 5.0 0.00 0.00 0.00 76 1013.6
20260901173009 86 49 4.0 5.0 0.00 0.00 0.00 76 1013.7
20260901172911 86 48 4.0 5.0 0.00 0.00 0.00 76 1013.6
20260901172809 86 48 4.0 5.0 0.00 0.00 0.00 75 1013.6
20260901172708 87 48 3.0 5.0 0.00 0.00 0.00 75 1013.7
20260901172610 87 54 3.0 7.0 0.00 0.00 0.00 75 1013.7
20260901172508 87 73 3.0 7.0 0.00 0.00 0.00 74 1013.7
20260901172410 87 73 4.0 7.0 0.00 0.00 0.00 74 1013.8
20260901172308 87 69 3.0 7.0 0.00 0.00 0.00 75 1013.7
20260901172209 87 25 2.0 7.0 0.00 0.00 0.00 74 1013.7
20260901172108 87 25 2.0 7.0 0.00 0.00 0.00 73 1013.7
20260901172009 87 25 3.0 7.0 0.00 0.00 0.00 72 1013.8
20260901171909 87 25 4.0 7.0 0.00 0.00 0.00 71 1013.8
20260901171808 87 25 5.0 7.0 0.00 0.00 0.00 71 1013.8
20260901171709 87 25 6.0 7.0 0.00 0.00 0.00 71 1013.8
20260901171608 87 35 5.0 7.0 0.00 0.00 0.00 71 1013.9
20260901171509 87 31 4.0 7.0 0.00 0.00 0.00 71 1013.9
20260901171408 87 45 4.0 6.0 0.00 0.00 0.00 71 1013.9
20260901171308 87 52 4.0 6.0 0.00 0.00 0.00 71 1013.9
20260901171208 87 55 4.0 6.0 0.00 0.00 0.00 71 1013.9
20260901171109 87 44 4.0 6.0 0.00 0.00 0.00 71 1013.9
20260901171008 87 44 4.0 6.0 0.00 0.00 0.00 72 1013.9
20260901170908 87 24 1.0 4.0 0.00 0.00 0.00 73 1013.9
20260901170809 87 24 1.0 4.0 0.00 0.00 0.00 73 1013.9
20260901170709 87 24 2.0 4.0 0.00 0.00 0.00 73 1013.9
20260901170608 87 24 2.0 4.0 0.00 0.00 0.00 73 1013.9
20260901170511 87 24 2.0 4.0 0.00 0.00 0.00 73 1014.0
20260901170409 87 24 2.0 4.0 0.00 0.00 0.00 73 1013.9
20260901170308 87 24 2.0 4.0 0.00 0.00 0.00 74 1014.0
20260901170208 86 24 2.0 4.0 0.00 0.00 0.00 74 1014.0
20260901170109 86 24 3.0 4.0 0.00 0.00 0.00 74 1014.0
20260901170009 86 24 3.0 4.0 0.00 0.00 0.00 73 1013.9
20260901165907 86 24 3.0 4.0 0.00 0.00 0.00 74 1013.8
20260901165805 87 23 2.0 4.0 0.00 0.00 0.00 74 1014.0
20260901165703 87 24 3.0 4.0 0.00 0.00 0.00 74 1013.9
20260901165603 87 354 3.0 4.0 0.00 0.00 0.00 73 1013.8
20260901165504 87 354 3.0 4.0 0.00 0.00 0.00 72 1013.9
20260901165403 87 0 2.0 4.0 0.00 0.00 0.00 73 1013.9
20260901165306 87 0 2.0 3.0 0.00 0.00 0.00 73 1013.9
20260901165202 87 0 2.0 3.0 0.00 0.00 0.00 72 1013.9
20260901165103 87 0 2.0 3.0 0.00 0.00 0.00 72 1013.9
20260901165003 87 0 2.0 3.0 0.00 0.00 0.00 72 1013.9
20260901164903 87 0 2.0 3.0 0.00 0.00 0.00 72 1013.9
20260901164803 87 0 2.0 3.0 0.00 0.00 0.00 72 1013.9
20260901164703 87 0 2.0 3.0 0.00 0.00 0.00 73 1014.0
20260901164602 87 0 2.0 3.0 0.00 0.00 0.00 74 1014.0
20260901164504 87 0 2.0 4.0 0.00 0.00 0.00 75 1014.0
20260901164403 87 0 2.0 4.0 0.00 0.00 0.00 74 1014.0
20260901164302 87 0 1.0 5.0 0.00 0.00 0.00 74 1014.1
20260901164203 87 0 1.0 5.0 0.00 0.00 0.00 74 1014.1
20260901164103 87 0 2.0 5.0 0.00 0.00 0.00 74 1014.1
20260901164004 87 0 2.0 5.0 0.00 0.00 0.00 73 1014.1
20260901163902 87 0 2.0 5.0 0.00 0.00 0.00 74 1014.1
20260901163802 87 25 1.0 5.0 0.00 0.00 0.00 73 1014.0
20260901163703 87 30 2.0 5.0 0.00 0.00 0.00 73 1014.0
20260901163602 87 30 2.0 5.0 0.00 0.00 0.00 73 1014.0
20260901163503 87 30 4.0 5.0 0.00 0.00 0.00 72 1014.1
20260901163403 87 32 3.0 5.0 0.00 0.00 0.00 73 1014.1
20260901163302 87 37 2.0 4.0 0.00 0.00 0.00 73 1014.1
20260901163202 87 336 1.0 5.0 0.00 0.00 0.00 74 1014.1
20260901163102 87 336 1.0 5.0 0.00 0.00 0.00 74 1014.1
20260901163004 87 336 1.0 5.0 0.00 0.00 0.00 74 1014.1
20260901162903 87 336 1.0 5.0 0.00 0.00 0.00 74 1014.2
20260901162803 87 336 2.0 5.0 0.00 0.00 0.00 74 1014.1
20260901162702 87 336 2.0 5.0 0.00 0.00 0.00 74 1014.1
20260901162602 87 336 2.0 5.0 0.00 0.00 0.00 74 1014.1
20260901162504 87 336 2.0 6.0 0.00 0.00 0.00 74 1014.2
20260901162402 87 336 3.0 7.0 0.00 0.00 0.00 74 1014.2
20260901162306 87 336 2.0 7.0 0.00 0.00 0.00 74 1014.2
20260901162203 87 338 2.0 7.0 0.00 0.00 0.00 74 1014.1
20260901162103 87 338 3.0 7.0 0.00 0.00 0.00 73 1014.1
20260901162003 87 340 3.0 7.0 0.00 0.00 0.00 73 1014.1
20260901161903 87 340 3.0 7.0 0.00 0.00 0.00 73 1014.1
20260901161803 87 340 3.0 7.0 0.00 0.00 0.00 73 1014.1
20260901161702 87 340 4.0 7.0 0.00 0.00 0.00 73 1014.0
20260901161602 87 340 5.0 7.0 0.00 0.00 0.00 73 1014.0
20260901161502 87 7 5.0 7.0 0.00 0.00 0.00 73 1014.0
20260901161402 87 3 3.0 6.0 0.00 0.00 0.00 73 1014.0
20260901161303 87 0 2.0 9.0 0.00 0.00 0.00 73 1014.0
20260901161203 87 21 3.0 10.0 0.00 0.00 0.00 73 1013.9
20260901161102 87 350 4.0 10.0 0.00 0.00 0.00 73 1014.0
20260901161003 87 0 4.0 10.0 0.00 0.00 0.00 73 1013.9
20260901160904 87 0 4.0 10.0 0.00 0.00 0.00 73 1014.0
20260901160802 87 0 4.0 10.0 0.00 0.00 0.00 73 1013.9
20260901160659 87 0 3.0 10.0 0.00 0.00 0.00 73 1013.9
20260901160559 87 358 3.0 10.0 0.00 0.00 0.00 73 1013.9
20260901160457 87 0 5.0 10.0 0.00 0.00 0.00 73 1014.0
20260901160355 87 351 6.0 10.0 0.00 0.00 0.00 73 1013.9
20260901160253 87 345 6.0 10.0 0.00 0.00 0.00 73 1013.9
20260901160153 87 347 5.0 10.0 0.00 0.00 0.00 73 1013.9
20260901160051 87 0 4.0 10.0 0.00 0.00 0.00 72 1013.9
20260901155949 87 347 4.0 10.0 0.00 0.00 0.00 73 1013.9
20260901155847 87 350 4.0 10.0 0.00 0.00 0.00 73 1013.9
20260901155747 87 7 4.0 10.0 0.00 0.00 0.00 72 1013.9
20260901155644 87 0 6.0 10.0 0.00 0.00 0.00 72 1013.9
20260901155543 88 340 7.0 10.0 0.00 0.00 0.00 72 1013.9
20260901155443 88 0 5.0 10.0 0.00 0.00 0.00 72 1013.9
20260901155337 88 3 5.0 10.0 0.00 0.00 0.00 72 1013.8
20260901155237 88 8 5.0 10.0 0.00 0.00 0.00 72 1013.9
20260901155133 88 357 4.0 9.0 0.00 0.00 0.00 72 1013.8
20260901155032 88 0 4.0 9.0 0.00 0.00 0.00 72 1013.8
20260901154931 88 17 4.0 9.0 0.00 0.00 0.00 72 1013.8
20260901154832 88 314 3.0 9.0 0.00 0.00 0.00 73 1013.8
20260901154731 88 4 3.0 9.0 0.00 0.00 0.00 72 1013.8
20260901154631 88 333 4.0 9.0 0.00 0.00 0.00 72 1013.7
20260901154532 88 20 5.0 9.0 0.00 0.00 0.00 72 1013.7
20260901154431 88 17 6.0 11.0 0.00 0.00 0.00 73 1013.8
20260901154330 88 0 5.0 11.0 0.00 0.00 0.00 72 1013.6
20260901154231 88 344 5.0 11.0 0.00 0.00 0.00 72 1013.6
20260901154132 88 0 5.0 11.0 0.00 0.00 0.00 73 1013.7
20260901154031 88 3 5.0 11.0 0.00 0.00 0.00 73 1013.6
20260901153931 88 355 5.0 11.0 0.00 0.00 0.00 73 1013.7
20260901153832 88 25 5.0 11.0 0.00 0.00 0.00 73 1013.7
20260901153731 87 13 4.0 11.0 0.00 0.00 0.00 73 1013.7
20260901153630 87 343 6.0 11.0 0.00 0.00 0.00 74 1013.7
20260901153531 87 17 7.0 11.0 0.00 0.00 0.00 73 1013.8
20260901153432 87 30 6.0 11.0 0.00 0.00 0.00 73 1013.7
20260901153331 87 18 6.0 11.0 0.00 0.00 0.00 73 1013.8
20260901153231 87 25 7.0 11.0 0.00 0.00 0.00 74 1013.8
20260901153133 87 347 7.0 11.0 0.00 0.00 0.00 74 1013.8
20260901153032 87 30 6.0 11.0 0.00 0.00 0.00 74 1013.8
20260901152931 87 24 6.0 9.0 0.00 0.00 0.00 74 1013.8
20260901152831 87 0 6.0 11.0 0.00 0.00 0.00 74 1013.7
20260901152732 87 348 5.0 11.0 0.00 0.00 0.00 74 1013.8
20260901152631 87 0 5.0 11.0 0.00 0.00 0.00 74 1013.8
20260901152531 87 333 5.0 11.0 0.00 0.00 0.00 74 1013.6
20260901152431 87 327 5.0 11.0 0.00 0.00 0.00 74 1013.7
20260901152331 87 355 5.0 11.0 0.00 0.00 0.00 74 1013.7
20260901152230 87 347 4.0 11.0 0.00 0.00 0.00 74 1013.7
20260901152132 87 323 6.0 11.0 0.00 0.00 0.00 74 1013.8
20260901152032 87 323 6.0 11.0 0.00 0.00 0.00 74 1013.8
20260901151933 87 344 6.0 11.0 0.00 0.00 0.00 74 1013.8
20260901151830 87 347 5.0 10.0 0.00 0.00 0.00 75 1013.8
20260901151731 87 321 5.0 9.0 0.00 0.00 0.00 75 1013.8
20260901151631 87 329 5.0 9.0 0.00 0.00 0.00 75 1013.8
20260901151532 87 350 4.0 9.0 0.00 0.00 0.00 75 1013.8
20260901151427 87 0 4.0 9.0 0.00 0.00 0.00 75 1013.9
20260901151325 87 0 4.0 9.0 0.00 0.00 0.00 75 1013.9
20260901151224 87 0 4.0 9.0 0.00 0.00 0.00 75 1013.9
20260901151123 87 8 5.0 9.0 0.00 0.00 0.00 75 1014.0
20260901151022 87 25 5.0 9.0 0.00 0.00 0.00 75 1014.0
20260901150920 87 24 4.0 9.0 0.00 0.00 0.00 76 1014.0
20260901150817 87 0 4.0 9.0 0.00 0.00 0.00 76 1014.0
20260901150719 87 34 4.0 9.0 0.00 0.00 0.00 76 1013.9
20260901150615 86 0 5.0 9.0 0.00 0.00 0.00 76 1014.0
20260901150515 86 41 6.0 9.0 0.00 0.00 0.00 76 1013.9
20260901150414 86 34 5.0 9.0 0.00 0.00 0.00 77 1013.9
20260901150311 86 37 3.0 9.0 0.00 0.00 0.00 78 1013.8
20260901150209 86 348 3.0 7.0 0.00 0.00 0.00 78 1013.8
20260901150108 86 345 4.0 7.0 0.00 0.00 0.00 79 1013.9
20260901150007 86 10 3.0 7.0 0.00 0.00 0.00 79 1013.8
20260901145905 86 13 3.0 7.0 0.00 0.00 0.00 79 1013.9
20260901145805 86 7 3.0 7.0 0.00 0.00 0.00 79 1013.9
20260901145705 86 10 4.0 7.0 0.00 0.00 0.00 79 1013.9
20260901145605 85 358 3.0 7.0 0.00 0.00 0.00 79 1013.9
20260901145505 85 0 3.0 7.0 0.00 0.00 0.00 79 1013.9
20260901145405 85 0 4.0 7.0 0.00 0.00 0.00 80 1013.9
20260901145306 85 32 4.0 7.0 0.00 0.00 0.00 80 1013.9
20260901145205 85 11 4.0 6.0 0.00 0.00 0.00 80 1013.9
20260901145105 85 17 3.0 6.0 0.00 0.00 0.00 81 1013.9
20260901145007 85 0 3.0 6.0 0.00 0.00 0.00 81 1013.9
20260901144905 84 0 3.0 6.0 0.00 0.00 0.00 82 1014.0
20260901144805 84 0 3.0 6.0 0.00 0.00 0.00 82 1013.9
20260901144705 84 0 3.0 6.0 0.00 0.00 0.00 82 1013.9
20260901144604 84 0 3.0 6.0 0.00 0.00 0.00 82 1013.9
20260901144505 84 0 3.0 6.0 0.00 0.00 0.00 82 1013.9
20260901144405 84 0 3.0 7.0 0.00 0.00 0.00 82 1013.9
20260901144305 84 0 3.0 7.0 0.00 0.00 0.00 83 1013.9
20260901144205 84 0 3.0 7.0 0.00 0.00 0.00 83 1014.0
20260901144106 84 0 2.0 7.0 0.00 0.00 0.00 83 1013.9
20260901144005 83 0 4.0 7.0 0.00 0.00 0.00 83 1013.9
20260901143905 83 0 4.0 7.0 0.00 0.00 0.00 83 1013.9
20260901143805 83 0 4.0 7.0 0.00 0.00 0.00 83 1013.9
20260901143705 83 358 4.0 7.0 0.00 0.00 0.00 83 1014.0
20260901143606 83 0 5.0 7.0 0.00 0.00 0.00 83 1014.0
20260901143504 83 13 4.0 7.0 0.00 0.00 0.00 83 1013.9
20260901143405 83 0 4.0 6.0 0.00 0.00 0.00 83 1013.9
20260901143305 83 354 4.0 6.0 0.00 0.00 0.00 83 1013.8
20260901143207 83 354 4.0 6.0 0.00 0.00 0.00 83 1013.9
20260901143105 83 4 3.0 6.0 0.00 0.00 0.00 83 1013.9
20260901143005 83 348 3.0 6.0 0.00 0.00 0.00 83 1013.9
20260901142905 83 348 3.0 6.0 0.00 0.00 0.00 83 1013.9
20260901142804 83 4 4.0 6.0 0.00 0.00 0.00 83 1013.9
20260901142705 83 8 4.0 6.0 0.00 0.00 0.00 82 1013.9
20260901142605 84 353 3.0 7.0 0.00 0.00 0.00 82 1013.8
20260901142505 84 354 4.0 7.0 0.00 0.00 0.00 82 1013.9
20260901142405 84 327 4.0 7.0 0.00 0.00 0.00 83 1013.8
20260901142305 84 337 3.0 7.0 0.00 0.00 0.00 83 1013.9
20260901142206 84 10 3.0 7.0 0.00 0.00 0.00 83 1013.9
20260901142104 84 353 2.0 9.0 0.00 0.00 0.00 83 1013.8
20260901142004 84 348 3.0 9.0 0.00 0.00 0.00 82 1013.8
20260901141905 84 348 4.0 9.0 0.00 0.00 0.00 82 1013.8
20260901141805 84 347 4.0 9.0 0.00 0.00 0.00 82 1013.8
20260901141704 84 6 5.0 9.0 0.00 0.00 0.00 82 1013.9
20260901141604 84 0 4.0 9.0 0.00 0.00 0.00 82 1013.8
20260901141505 84 350 3.0 9.0 0.00 0.00 0.00 83 1013.8
20260901141405 84 0 4.0 9.0 0.00 0.00 0.00 83 1013.8
20260901141304 84 20 6.0 9.0 0.00 0.00 0.00 83 1013.8
20260901141204 84 6 5.0 9.0 0.00 0.00 0.00 83 1013.9
20260901141107 84 23 4.0 9.0 0.00 0.00 0.00 83 1013.9
20260901141005 84 0 4.0 9.0 0.00 0.00 0.00 83 1013.8
20260901140904 84 0 4.0 9.0 0.00 0.00 0.00 83 1013.9
20260901140805 84 1 4.0 9.0 0.00 0.00 0.00 83 1014.0
20260901140704 84 1 4.0 9.0 0.00 0.00 0.00 83 1013.9
20260901140604 83 25 4.0 9.0 0.00 0.00 0.00 83 1014.0
20260901140504 84 357 5.0 9.0 0.00 0.00 0.00 83 1013.9
20260901140407 84 23 6.0 9.0 0.00 0.00 0.00 83 1014.0
20260901140304 84 351 5.0 9.0 0.00 0.00 0.00 83 1014.0
20260901140204 84 6 5.0 9.0 0.00 0.00 0.00 84 1014.0
20260901140106 83 6 4.0 9.0 0.00 0.00 0.00 84 1014.0
20260901140005 83 6 5.0 9.0 0.00 0.00 0.00 84 1014.0
20260901135904 83 3 6.0 9.0 0.00 0.00 0.00 84 1014.0
20260901135805 83 35 6.0 9.0 0.00 0.00 0.00 84 1014.0
20260901135705 83 11 7.0 9.0 0.00 0.00 0.00 84 1014.0
20260901135604 83 17 5.0 9.0 0.00 0.00 0.00 85 1014.0
20260901135505 83 0 4.0 7.0 0.00 0.00 0.00 86 1014.1
20260901135405 83 32 4.0 7.0 0.00 0.00 0.00 86 1014.0
20260901135305 82 24 5.0 7.0 0.00 0.00 0.00 86 1014.1
20260901135203 82 0 5.0 7.0 0.00 0.00 0.00 86 1014.1
20260901135105 82 345 5.0 7.0 0.00 0.00 0.00 86 1014.0
20260901135004 82 327 5.0 6.0 0.00 0.00 0.00 87 1014.1
20260901134904 82 0 4.0 6.0 0.00 0.00 0.00 87 1014.2
20260901134804 82 0 3.0 6.0 0.00 0.00 0.00 87 1014.2
20260901134704 82 0 3.0 5.0 0.00 0.00 0.00 87 1014.1
20260901134603 82 0 4.0 5.0 0.00 0.00 0.00 87 1014.2
20260901134504 82 354 4.0 5.0 0.00 0.00 0.00 87 1014.2
20260901134403 82 357 3.0 6.0 0.00 0.00 0.00 87 1014.2
20260901134303 81 357 3.0 7.0 0.00 0.00 0.00 88 1014.2
20260901134203 81 357 4.0 7.0 0.00 0.00 0.00 88 1014.2
20260901134104 81 343 3.0 7.0 0.00 0.00 0.00 88 1014.2
20260901134004 81 7 1.0 7.0 0.00 0.00 0.00 88 1014.3
20260901133903 81 7 2.0 7.0 0.00 0.00 0.00 88 1014.2
20260901133803 81 7 2.0 7.0 0.00 0.00 0.00 88 1014.3
20260901133704 81 8 3.0 7.0 0.00 0.00 0.00 88 1014.3
20260901133604 81 8 4.0 7.0 0.00 0.00 0.00 88 1014.3
20260901133504 81 1 6.0 7.0 0.00 0.00 0.00 88 1014.3
20260901133404 81 31 6.0 7.0 0.00 0.00 0.00 88 1014.2
20260901133305 81 23 4.0 7.0 0.00 0.00 0.00 89 1014.3
20260901133204 81 17 3.0 7.0 0.00 0.00 0.00 89 1014.3
20260901133103 81 21 4.0 7.0 0.00 0.00 0.00 89 1014.3
20260901133004 81 20 4.0 7.0 0.00 0.00 0.00 89 1014.2
20260901132903 81 17 5.0 7.0 0.00 0.00 0.00 89 1014.2
20260901132803 81 32 5.0 7.0 0.00 0.00 0.00 89 1014.3
20260901132703 81 42 4.0 7.0 0.00 0.00 0.00 89 1014.2
20260901132603 81 39 4.0 6.0 0.00 0.00 0.00 89 1014.2
20260901132504 81 0 4.0 6.0 0.00 0.00 0.00 89 1014.2
20260901132403 81 17 4.0 6.0 0.00 0.00 0.00 89 1014.1
20260901132307 81 20 2.0 5.0 0.00 0.00 0.00 90 1014.1
20260901132205 81 7 2.0 5.0 0.00 0.00 0.00 90 1014.1
20260901132103 80 7 2.0 5.0 0.00 0.00 0.00 90 1014.1
20260901132003 80 7 2.0 5.0 0.00 0.00 0.00 90 1014.0
20260901131904 80 7 2.0 5.0 0.00 0.00 0.00 90 1014.0
20260901131803 80 7 2.0 5.0 0.00 0.00 0.00 90 1014.0
20260901131703 80 11 2.0 5.0 0.00 0.00 0.00 90 1013.9
20260901131604 80 13 2.0 5.0 0.00 0.00 0.00 90 1013.9
20260901131504 80 13 2.0 5.0 0.00 0.00 0.00 90 1013.9
20260901131405 80 21 3.0 5.0 0.00 0.00 0.00 90 1013.8
20260901131304 80 25 3.0 5.0 0.00 0.00 0.00 90 1013.9
20260901131203 80 25 4.0 5.0 0.00 0.00 0.00 90 1013.8
20260901131103 80 13 3.0 5.0 0.00 0.00 0.00 90 1013.8
20260901131004 80 0 3.0 5.0 0.00 0.00 0.00 90 1013.8
20260901130904 80 353 3.0 5.0 0.00 0.00 0.00 90 1013.8
20260901130803 80 340 3.0 7.0 0.00 0.00 0.00 90 1013.8
20260901130703 80 0 3.0 7.0 0.00 0.00 0.00 90 1013.7
20260901130604 80 0 3.0 7.0 0.00 0.00 0.00 90 1013.7
20260901130504 80 6 3.0 7.0 0.00 0.00 0.00 90 1013.7
20260901130402 80 6 4.0 7.0 0.00 0.00 0.00 90 1013.7
20260901130304 80 3 4.0 7.0 0.00 0.00 0.00 90 1013.7
20260901130204 80 16 4.0 7.0 0.00 0.00 0.00 90 1013.7
20260901130103 80 354 3.0 7.0 0.00 0.00 0.00 91 1013.7
20260901130002 80 353 4.0 7.0 0.00 0.00 0.00 91 1013.6
20260901125903 80 11 4.0 7.0 0.00 0.00 0.00 91 1013.6
20260901125803 80 13 4.0 7.0 0.00 0.00 0.00 91 1013.6
20260901125702 80 0 4.0 7.0 0.00 0.00 0.00 91 1013.7
20260901125558 80 8 3.0 7.0 0.00 0.00 0.00 91 1013.7
20260901125459 80 10 4.0 7.0 0.00 0.00 0.00 91 1013.7
20260901125357 80 13 4.0 7.0 0.00 0.00 0.00 91 1013.6
20260901125256 80 18 4.0 7.0 0.00 0.00 0.00 91 1013.6
20260901125155 80 25 4.0 7.0 0.00 0.00 0.00 91 1013.6
20260901125049 80 17 4.0 7.0 0.00 0.00 0.00 91 1013.5
20260901124947 79 17 4.0 7.0 0.00 0.00 0.00 91 1013.5
20260901124847 79 347 3.0 5.0 0.00 0.00 0.00 91 1013.5
20260901124738 79 3 3.0 5.0 0.00 0.00 0.00 91 1013.5
20260901124636 79 10 3.0 5.0 0.00 0.00 0.00 91 1013.5
20260901124536 79 18 3.0 5.0 0.00 0.00 0.00 91 1013.4
20260901124433 79 7 3.0 5.0 0.00 0.00 0.00 91 1013.4
20260901124333 79 7 3.0 5.0 0.00 0.00 0.00 91 1013.4
20260901124231 79 8 3.0 5.0 0.00 0.00 0.00 91 1013.4
20260901124131 79 0 3.0 5.0 0.00 0.00 0.00 91 1013.4
20260901124032 79 11 4.0 5.0 0.00 0.00 0.00 91 1013.5
20260901123932 79 0 3.0 5.0 0.00 0.00 0.00 91 1013.4
20260901123831 79 0 3.0 5.0 0.00 0.00 0.00 91 1013.4
20260901123731 79 1 3.0 5.0 0.00 0.00 0.00 91 1013.4
20260901123631 79 0 2.0 4.0 0.00 0.00 0.00 91 1013.4
20260901123531 79 0 3.0 4.0 0.00 0.00 0.00 91 1013.4
20260901123430 79 0 2.0 4.0 0.00 0.00 0.00 91 1013.4
20260901123333 79 327 2.0 4.0 0.00 0.00 0.00 91 1013.3
20260901123231 79 327 2.0 4.0 0.00 0.00 0.00 91 1013.4
20260901123131 79 327 2.0 4.0 0.00 0.00 0.00 91 1013.4
20260901123033 79 327 2.0 4.0 0.00 0.00 0.00 91 1013.3
20260901122932 79 329 2.0 4.0 0.00 0.00 0.00 91 1013.3
20260901122830 79 327 2.0 4.0 0.00 0.00 0.00 91 1013.3
20260901122731 79 327 2.0 4.0 0.00 0.00 0.00 91 1013.3
20260901122631 79 329 3.0 4.0 0.00 0.00 0.00 91 1013.3
20260901122531 79 329 3.0 4.0 0.00 0.00 0.00 91 1013.2
20260901122432 79 344 2.0 3.0 0.00 0.00 0.00 91 1013.2
20260901122333 79 0 2.0 3.0 0.00 0.00 0.00 91 1013.2
20260901122232 79 0 0.0 0.0 0.00 0.00 0.00 91 1013.2
20260901122119 79 0 0.0 0.0 0.00 0.00 0.00 91 1013.1
20260901122018 79 0 0.0 2.0 0.00 0.00 0.00 91 1013.2
20260901121916 79 0 0.0 3.0 0.00 0.00 0.00 91 1013.2
20260901121816 79 0 0.0 3.0 0.00 0.00 0.00 91 1013.2
20260901121712 79 0 0.0 3.0 0.00 0.00 0.00 91 1013.3
20260901121611 79 0 0.0 3.0 0.00 0.00 0.00 91 1013.4
20260901121510 79 0 0.0 4.0 0.00 0.00 0.00 91 1013.3
20260901121409 79 0 0.0 4.0 0.00 0.00 0.00 91 1013.3
20260901121307 79 0 0.0 4.0 0.00 0.00 0.00 91 1013.3
20260901121207 79 0 1.0 4.0 0.00 0.00 0.00 92 1013.2
20260901121103 79 0 2.0 4.0 0.00 0.00 0.00 92 1013.2
20260901121006 79 0 2.0 4.0 0.00 0.00 0.00 92 1013.2
20260901120902 79 0 2.0 4.0 0.00 0.00 0.00 92 1013.2
20260901120801 79 0 3.0 4.0 0.00 0.00 0.00 92 1013.2
20260901120703 79 0 3.0 4.0 0.00 0.00 0.00 92 1013.1
20260901120602 79 0 3.0 4.0 0.00 0.00 0.00 92 1013.1
20260901120502 79 0 3.0 4.0 0.00 0.00 0.00 92 1013.1
20260901120404 79 0 2.0 4.0 0.00 0.00 0.00 92 1013.1
20260901120304 79 0 2.0 4.0 0.00 0.00 0.00 92 1013.1
20260901120202 79 0 2.0 4.0 0.00 0.00 0.00 92 1013.1
20260901120103 79 0 2.0 4.0 0.00 0.00 0.00 92 1013.0
20260901120001 79 0 1.0 4.0 0.00 0.00 0.00 92 1013.0
20260901115901 79 0 0.0 3.0 0.00 0.00 0.00 92 1013.0
20260901115800 79 0 0.0 3.0 0.00 0.00 0.00 92 1013.0
20260901115702 79 0 0.0 3.0 0.00 0.00 0.00 92 1013.0
20260901115602 79 0 0.0 3.0 0.00 0.00 0.00 92 1013.0
20260901115503 79 0 1.0 3.0 0.00 0.00 0.00 92 1013.0
20260901115403 79 0 1.0 3.0 0.00 0.00 0.00 92 1013.0
20260901115306 79 0 2.0 3.0 0.00 0.00 0.00 92 1013.0
20260901115201 79 0 2.0 3.0 0.00 0.00 0.00 92 1013.0
20260901115101 79 0 2.0 3.0 0.00 0.00 0.00 92 1013.1
20260901115000 79 0 2.0 3.0 0.00 0.00 0.00 92 1013.0
20260901114903 79 0 1.0 2.0 0.00 0.00 0.00 92 1013.1
20260901114801 79 0 2.0 2.0 0.00 0.00 0.00 92 1013.1
20260901114700 79 0 2.0 2.0 0.00 0.00 0.00 92 1013.0
20260901114557 79 0 1.0 2.0 0.00 0.00 0.00 92 1013.0
20260901114456 79 0 1.0 2.0 0.00 0.00 0.00 92 1013.0
20260901114355 79 0 1.0 2.0 0.00 0.00 0.00 92 1013.0
20260901114253 79 0 1.0 3.0 0.00 0.00 0.00 92 1013.0
20260901114152 79 0 1.0 3.0 0.00 0.00 0.00 92 1013.0
20260901114051 79 0 1.0 3.0 0.00 0.00 0.00 92 1013.0
20260901113948 79 0 1.0 3.0 0.00 0.00 0.00 92 1013.0
20260901113847 79 0 1.0 3.0 0.00 0.00 0.00 92 1013.1
20260901113745 79 0 2.0 3.0 0.00 0.00 0.00 92 1012.9
20260901113645 79 0 2.0 3.0 0.00 0.00 0.00 92 1013.0
20260901113542 79 0 2.0 3.0 0.00 0.00 0.00 92 1013.0
20260901113440 79 0 1.0 3.0 0.00 0.00 0.00 92 1013.0
20260901113339 79 0 1.0 3.0 0.00 0.00 0.00 92 1013.0
20260901113237 79 0 1.0 3.0 0.00 0.00 0.00 92 1012.9
20260901113136 79 0 1.0 3.0 0.00 0.00 0.00 92 1013.0
20260901113036 79 0 1.0 4.0 0.00 0.00 0.00 92 1012.9
20260901112932 79 0 2.0 4.0 0.00 0.00 0.00 92 1012.9
20260901112832 79 0 2.0 4.0 0.00 0.00 0.00 92 1012.9
20260901112731 79 0 2.0 4.0 0.00 0.00 0.00 92 1012.9
20260901112630 79 0 2.0 4.0 0.00 0.00 0.00 92 1012.9
20260901112532 79 0 2.0 4.0 0.00 0.00 0.00 92 1012.9
20260901112432 79 0 2.0 4.0 0.00 0.00 0.00 92 1012.9
20260901112331 79 0 2.0 4.0 0.00 0.00 0.00 92 1012.9
20260901112230 79 3 2.0 4.0 0.00 0.00 0.00 92 1012.8
20260901112131 79 0 3.0 4.0 0.00 0.00 0.00 92 1012.9
20260901112031 79 1 2.0 4.0 0.00 0.00 0.00 92 1012.9
20260901111932 79 0 3.0 4.0 0.00 0.00 0.00 92 1012.9
20260901111831 79 0 3.0 4.0 0.00 0.00 0.00 92 1012.9
20260901111730 79 0 2.0 4.0 0.00 0.00 0.00 92 1012.8
20260901111632 79 0 2.0 4.0 0.00 0.00 0.00 92 1012.9
20260901111532 79 0 3.0 4.0 0.00 0.00 0.00 92 1012.9
20260901111432 79 0 3.0 4.0 0.00 0.00 0.00 92 1012.8
20260901111330 79 8 2.0 3.0 0.00 0.00 0.00 92 1012.9
20260901111231 79 8 2.0 3.0 0.00 0.00 0.00 92 1012.9
20260901111132 79 11 2.0 3.0 0.00 0.00 0.00 92 1012.9
20260901111031 79 13 2.0 3.0 0.00 0.00 0.00 92 1012.9
20260901110931 79 16 2.0 3.0 0.00 0.00 0.00 92 1013.0
20260901110833 79 18 2.0 3.0 0.00 0.00 0.00 92 1012.9
20260901110732 79 18 2.0 3.0 0.00 0.00 0.00 92 1013.0
20260901110631 79 24 2.0 3.0 0.00 0.00 0.00 92 1012.9
20260901110531 79 24 2.0 3.0 0.00 0.00 0.00 92 1012.9
20260901110431 79 24 2.0 3.0 0.00 0.00 0.00 92 1012.9
20260901110331 79 27 2.0 3.0 0.00 0.00 0.00 92 1012.9
20260901110228 79 27 2.0 3.0 0.00 0.00 0.00 92 1012.9
20260901110127 79 28 2.0 3.0 0.00 0.00 0.00 92 1012.8
20260901110027 79 28 2.0 3.0 0.00 0.00 0.00 92 1012.8
20260901105924 79 28 2.0 3.0 0.00 0.00 0.00 91 1012.8
20260901105824 79 28 2.0 3.0 0.00 0.00 0.00 91 1012.8
20260901105717 79 28 2.0 3.0 0.00 0.00 0.00 91 1012.8
20260901105616 79 28 2.0 3.0 0.00 0.00 0.00 91 1012.8
20260901105515 79 28 2.0 3.0 0.00 0.00 0.00 91 1012.8
20260901105413 79 28 2.0 3.0 0.00 0.00 0.00 91 1012.8
20260901105312 79 28 1.0 2.0 0.00 0.00 0.00 91 1012.8
20260901105210 79 28 1.0 2.0 0.00 0.00 0.00 91 1012.8
20260901105111 79 28 1.0 2.0 0.00 0.00 0.00 91 1012.8
20260901105007 79 28 0.0 2.0 0.00 0.00 0.00 91 1012.8
20260901104907 79 28 0.0 2.0 0.00 0.00 0.00 91 1012.8
20260901104804 79 28 0.0 2.0 0.00 0.00 0.00 91 1012.8
20260901104702 79 28 0.0 2.0 0.00 0.00 0.00 91 1012.8
20260901104601 79 28 0.0 2.0 0.00 0.00 0.00 91 1012.8
20260901104504 79 28 0.0 2.0 0.00 0.00 0.00 91 1012.8
20260901104402 79 28 0.0 2.0 0.00 0.00 0.00 91 1012.8
20260901104302 79 28 1.0 2.0 0.00 0.00 0.00 91 1012.8
20260901104203 79 28 1.0 2.0 0.00 0.00 0.00 91 1012.8
20260901104102 79 28 1.0 2.0 0.00 0.00 0.00 91 1012.8
20260901104003 79 28 1.0 2.0 0.00 0.00 0.00 91 1012.8
20260901103902 79 28 1.0 2.0 0.00 0.00 0.00 91 1012.8
20260901103801 79 28 0.0 2.0 0.00 0.00 0.00 91 1012.8
20260901103702 79 28 1.0 2.0 0.00 0.00 0.00 91 1012.8
20260901103602 79 28 1.0 2.0 0.00 0.00 0.00 91 1012.8
20260901103503 79 28 1.0 2.0 0.00 0.00 0.00 91 1012.8
20260901103402 79 28 0.0 2.0 0.00 0.00 0.00 91 1012.7
20260901103302 79 28 0.0 1.0 0.00 0.00 0.00 91 1012.7
20260901103202 79 28 0.0 1.0 0.00 0.00 0.00 91 1012.7
20260901103102 79 28 0.0 1.0 0.00 0.00 0.00 91 1012.7
20260901103002 79 28 0.0 1.0 0.00 0.00 0.00 91 1012.7
20260901102902 79 28 0.0 1.0 0.00 0.00 0.00 91 1012.7
20260901102803 79 28 0.0 1.0 0.00 0.00 0.00 91 1012.7
20260901102702 79 28 0.0 1.0 0.00 0.00 0.00 91 1012.7
20260901102602 79 28 0.0 1.0 0.00 0.00 0.00 91 1012.7
20260901102503 79 28 0.0 1.0 0.00 0.00 0.00 91 1012.8
20260901102402 79 28 0.0 1.0 0.00 0.00 0.00 91 1012.7
20260901102306 79 28 0.0 2.0 0.00 0.00 0.00 91 1012.7
20260901102202 79 28 0.0 2.0 0.00 0.00 0.00 91 1012.7
20260901102103 79 28 0.0 2.0 0.00 0.00 0.00 91 1012.7
20260901102002 79 28 0.0 2.0 0.00 0.00 0.00 91 1012.7
20260901101902 79 28 0.0 2.0 0.00 0.00 0.00 91 1012.7
20260901101803 79 28 0.0 2.0 0.00 0.00 0.00 91 1012.7
20260901101703 79 28 0.0 2.0 0.00 0.00 0.00 91 1012.7
20260901101602 79 28 0.0 2.0 0.00 0.00 0.00 91 1012.7
20260901101502 79 28 1.0 2.0 0.00 0.00 0.00 91 1012.7
20260901101404 79 28 1.0 2.0 0.00 0.00 0.00 91 1012.7
20260901101303 79 28 1.0 2.0 0.00 0.00 0.00 91 1012.7
20260901101202 79 28 1.0 2.0 0.00 0.00 0.00 91 1012.8
20260901101103 79 28 1.0 2.0 0.00 0.00 0.00 91 1012.7
20260901101002 79 28 0.0 2.0 0.00 0.00 0.00 91 1012.8
20260901100902 79 28 0.0 0.0 0.00 0.00 0.00 91 1012.8
20260901100803 79 28 0.0 0.0 0.00 0.00 0.00 91 1012.8
20260901100703 79 28 0.0 0.0 0.00 0.00 0.00 91 1012.8
20260901100603 79 28 0.0 0.0 0.00 0.00 0.00 91 1012.8
20260901100502 79 28 0.0 0.0 0.00 0.00 0.00 91 1012.8
20260901100401 79 28 0.0 0.0 0.00 0.00 0.00 91 1012.8
20260901100303 79 28 0.0 0.0 0.00 0.00 0.00 91 1012.8
20260901100203 79 28 0.0 0.0 0.00 0.00 0.00 91 1012.7
20260901100004 79 28 0.0 0.0 0.00 0.00 0.00 91 1012.8
20260901095904 79 28 0.0 0.0 0.00 0.00 0.00 91 1012.7
20260901095802 79 28 0.0 0.0 0.00 0.00 0.00 91 1012.8
20260901095703 79 28 0.0 0.0 0.00 0.00 0.00 91 1012.8
20260901095603 80 28 0.0 0.0 0.00 0.00 0.00 91 1012.8
20260901095504 80 28 0.0 0.0 0.00 0.00 0.00 91 1012.7
20260901095402 80 28 0.0 0.0 0.00 0.00 0.00 91 1012.8
20260901095306 80 28 0.0 0.0 0.00 0.00 0.00 91 1012.8
20260901095203 80 28 0.0 0.0 0.00 0.00 0.00 91 1012.8
20260901095102 80 28 0.0 0.0 0.00 0.00 0.00 91 1012.8
20260901095004 80 28 0.0 0.0 0.00 0.00 0.00 91 1012.9
20260901094902 80 28 0.0 0.0 0.00 0.00 0.00 91 1012.8
20260901094802 80 28 0.0 1.0 0.00 0.00 0.00 91 1012.8
20260901094702 80 28 0.0 1.0 0.00 0.00 0.00 91 1012.8
20260901094602 80 28 0.0 1.0 0.00 0.00 0.00 91 1012.8
20260901094503 80 28 0.0 2.0 0.00 0.00 0.00 91 1012.8
20260901094402 80 28 0.0 2.0 0.00 0.00 0.00 91 1012.8
20260901094302 80 28 0.0 3.0 0.00 0.00 0.00 91 1012.8
20260901094202 80 28 0.0 3.0 0.00 0.00 0.00 91 1012.8
20260901094102 80 28 0.0 3.0 0.00 0.00 0.00 91 1012.8
20260901094002 80 28 0.0 3.0 0.00 0.00 0.00 91 1012.8
20260901093903 80 28 0.0 3.0 0.00 0.00 0.00 91 1012.8
20260901093802 80 28 0.0 3.0 0.00 0.00 0.00 91 1012.9
20260901093702 80 28 1.0 3.0 0.00 0.00 0.00 91 1012.9
20260901093602 80 28 2.0 3.0 0.00 0.00 0.00 91 1012.8
20260901093503 80 28 2.0 3.0 0.00 0.00 0.00 91 1012.9
20260901093403 80 28 2.0 3.0 0.00 0.00 0.00 91 1012.9
20260901093304 80 28 1.0 2.0 0.00 0.00 0.00 91 1012.8
20260901093201 80 28 0.0 2.0 0.00 0.00 0.00 91 1012.9
20260901093102 80 28 0.0 0.0 0.00 0.00 0.00 92 1012.9
20260901093002 80 28 0.0 0.0 0.00 0.00 0.00 92 1012.9
20260901092903 80 28 0.0 0.0 0.00 0.00 0.00 92 1012.9
20260901092803 80 28 0.0 0.0 0.00 0.00 0.00 92 1013.0
20260901092703 80 28 0.0 0.0 0.00 0.00 0.00 92 1012.9
20260901092602 80 28 0.0 0.0 0.00 0.00 0.00 92 1012.9
20260901092502 80 28 0.0 0.0 0.00 0.00 0.00 92 1012.9
20260901092402 80 28 0.0 0.0 0.00 0.00 0.00 92 1012.9
20260901092305 80 28 0.0 0.0 0.00 0.00 0.00 92 1012.9
20260901092202 80 28 0.0 0.0 0.00 0.00 0.00 92 1012.9
20260901092103 80 28 0.0 0.0 0.00 0.00 0.00 92 1012.9
20260901092003 80 28 0.0 0.0 0.00 0.00 0.00 92 1013.0
20260901091903 80 28 0.0 0.0 0.00 0.00 0.00 92 1012.9
20260901091803 80 28 0.0 0.0 0.00 0.00 0.00 92 1013.0
20260901091702 80 28 0.0 0.0 0.00 0.00 0.00 92 1013.0
20260901091603 80 28 0.0 0.0 0.00 0.00 0.00 92 1013.0
20260901091503 80 28 0.0 0.0 0.00 0.00 0.00 92 1013.0
20260901091403 80 28 0.0 0.0 0.00 0.00 0.00 92 1013.0
20260901091304 80 28 0.0 0.0 0.00 0.00 0.00 92 1013.0
20260901091202 80 28 0.0 0.0 0.00 0.00 0.00 92 1013.0
20260901091103 80 28 0.0 0.0 0.00 0.00 0.00 92 1013.0
20260901091002 80 28 0.0 0.0 0.00 0.00 0.00 92 1013.0
20260901090903 80 28 0.0 0.0 0.00 0.00 0.00 92 1013.0
20260901090802 80 28 0.0 0.0 0.00 0.00 0.00 92 1013.0
20260901090702 80 28 0.0 0.0 0.00 0.00 0.00 92 1013.1
20260901090603 80 28 0.0 0.0 0.00 0.00 0.00 92 1013.1
20260901090504 80 28 0.0 0.0 0.00 0.00 0.00 92 1013.0
20260901090402 80 28 0.0 0.0 0.00 0.00 0.00 92 1013.1
20260901090303 80 28 0.0 0.0 0.00 0.00 0.00 92 1013.1
20260901090203 80 28 0.0 0.0 0.00 0.00 0.00 92 1013.1
20260901090004 80 28 0.0 0.0 0.00 0.00 0.00 92 1013.0
20260901085904 80 28 0.0 0.0 0.00 0.00 0.00 92 1013.0
20260901085801 80 28 0.0 0.0 0.00 0.00 0.00 92 1013.0
20260901085703 80 28 0.0 0.0 0.00 0.00 0.00 92 1013.0
20260901085602 80 28 0.0 0.0 0.00 0.00 0.00 92 1013.0
20260901085502 80 28 0.0 0.0 0.00 0.00 0.00 92 1013.0
20260901085402 80 28 0.0 0.0 0.00 0.00 0.00 92 1012.9
20260901085305 80 28 0.0 0.0 0.00 0.00 0.00 92 1013.0
20260901085203 80 28 0.0 0.0 0.00 0.00 0.00 92 1013.0
20260901085103 80 28 0.0 0.0 0.00 0.00 0.00 92 1012.9
20260901085003 80 28 0.0 0.0 0.00 0.00 0.00 92 1012.9
20260901084903 80 28 0.0 0.0 0.00 0.00 0.00 92 1012.9
20260901084803 80 28 0.0 0.0 0.00 0.00 0.00 92 1012.9
20260901084702 80 28 0.0 0.0 0.00 0.00 0.00 92 1012.9
20260901084602 80 28 0.0 0.0 0.00 0.00 0.00 92 1012.9
20260901084504 80 28 0.0 0.0 0.00 0.00 0.00 92 1012.9
20260901084402 80 28 0.0 0.0 0.00 0.00 0.00 92 1013.0
20260901084302 80 28 0.0 0.0 0.00 0.00 0.00 92 1013.0
20260901084204 80 28 0.0 0.0 0.00 0.00 0.00 92 1013.0
20260901084102 80 28 0.0 0.0 0.00 0.00 0.00 92 1013.1
20260901084002 80 28 0.0 0.0 0.00 0.00 0.00 92 1013.1
20260901083903 80 28 0.0 0.0 0.00 0.00 0.00 92 1013.0
20260901083800 80 28 0.0 0.0 0.00 0.00 0.00 92 1013.0
20260901083657 80 28 0.0 0.0 0.00 0.00 0.00 92 1013.0
20260901083557 80 28 0.0 0.0 0.00 0.00 0.00 92 1013.1
20260901083458 80 28 0.0 0.0 0.00 0.00 0.00 92 1013.1
20260901083357 80 28 0.0 0.0 0.00 0.00 0.00 92 1013.1
20260901083256 80 28 0.0 0.0 0.00 0.00 0.00 92 1013.0
20260901083156 80 28 0.0 0.0 0.00 0.00 0.00 92 1013.1
20260901083057 80 28 0.0 0.0 0.00 0.00 0.00 92 1013.0
20260901082958 80 28 0.0 0.0 0.00 0.00 0.00 92 1013.0
20260901082857 80 28 0.0 0.0 0.00 0.00 0.00 92 1013.0
20260901082757 80 30 0.0 0.0 0.00 0.00 0.00 92 1012.9
20260901082658 80 28 0.0 0.0 0.00 0.00 0.00 92 1013.0
20260901082556 80 28 0.0 0.0 0.00 0.00 0.00 92 1012.9
20260901082456 80 28 0.0 0.0 0.00 0.00 0.00 92 1012.9
20260901082356 80 30 0.0 0.0 0.00 0.00 0.00 92 1013.0
20260901082258 80 28 0.0 0.0 0.00 0.00 0.00 92 1012.9
20260901082156 80 28 0.0 0.0 0.00 0.00 0.00 92 1013.0
20260901082059 80 28 0.0 0.0 0.00 0.00 0.00 92 1012.9
20260901081956 80 28 0.0 1.0 0.00 0.00 0.00 92 1012.9
20260901081856 80 28 0.0 1.0 0.00 0.00 0.00 92 1012.9
20260901081758 80 28 0.0 1.0 0.00 0.00 0.00 92 1013.0
20260901081657 80 28 0.0 1.0 0.00 0.00 0.00 92 1013.0
20260901081556 80 28 0.0 1.0 0.00 0.00 0.00 92 1012.9
20260901081456 80 28 0.0 1.0 0.00 0.00 0.00 92 1013.0
20260901081357 80 28 0.0 1.0 0.00 0.00 0.00 92 1012.9
20260901081256 80 28 0.0 1.0 0.00 0.00 0.00 92 1013.0
20260901081156 80 28 0.0 1.0 0.00 0.00 0.00 92 1012.9
20260901081058 80 28 1.0 1.0 0.00 0.00 0.00 92 1012.9
20260901080955 80 30 1.0 1.0 0.00 0.00 0.00 91 1012.9
20260901080858 80 28 0.0 1.0 0.00 0.00 0.00 91 1013.0
20260901080757 80 30 0.0 2.0 0.00 0.00 0.00 91 1013.0
20260901080657 80 30 0.0 2.0 0.00 0.00 0.00 91 1013.0
20260901080557 80 30 0.0 2.0 0.00 0.00 0.00 91 1013.0
20260901080456 80 30 0.0 2.0 0.00 0.00 0.00 91 1013.0
20260901080357 80 30 0.0 2.0 0.00 0.00 0.00 91 1012.9
20260901080255 80 30 0.0 2.0 0.00 0.00 0.00 91 1012.9
20260901080157 80 30 0.0 2.0 0.00 0.00 0.00 91 1013.0
20260901080055 80 30 0.0 2.0 0.00 0.00 0.00 91 1013.0
20260901075958 80 30 1.0 2.0 0.00 0.00 0.00 91 1013.1
20260901075854 80 30 1.0 2.0 0.00 0.00 0.00 91 1013.0
20260901075753 80 30 1.0 2.0 0.00 0.00 0.00 91 1013.0
20260901075651 80 30 0.0 1.0 0.00 0.00 0.00 91 1013.0
20260901075551 80 30 0.0 0.0 0.00 0.00 0.00 91 1013.0
20260901075449 80 30 0.0 0.0 0.00 0.00 0.00 91 1013.0
20260901075347 80 30 0.0 0.0 0.00 0.00 0.00 91 1013.1
20260901075245 80 30 0.0 0.0 0.00 0.00 0.00 91 1013.0
20260901075144 80 30 0.0 0.0 0.00 0.00 0.00 91 1013.1
20260901075042 80 30 0.0 0.0 0.00 0.00 0.00 91 1013.1
20260901074941 81 30 0.0 0.0 0.00 0.00 0.00 91 1013.1
20260901074840 81 30 0.0 0.0 0.00 0.00 0.00 91 1013.1
20260901074735 81 30 0.0 0.0 0.00 0.00 0.00 91 1013.1
20260901074633 81 30 0.0 0.0 0.00 0.00 0.00 91 1013.1
20260901074532 81 30 0.0 0.0 0.00 0.00 0.00 91 1013.1
20260901074431 81 30 0.0 0.0 0.00 0.00 0.00 91 1013.1
20260901074333 81 30 0.0 0.0 0.00 0.00 0.00 91 1013.1
20260901074232 81 30 0.0 0.0 0.00 0.00 0.00 91 1013.0
20260901074131 81 30 0.0 1.0 0.00 0.00 0.00 91 1013.0
20260901074030 81 30 0.0 1.0 0.00 0.00 0.00 91 1013.1
20260901073931 81 30 0.0 3.0 0.00 0.00 0.00 91 1013.0
20260901073830 81 30 0.0 3.0 0.00 0.00 0.00 91 1013.1
20260901073731 81 30 0.0 3.0 0.00 0.00 0.00 91 1013.1
20260901073633 81 30 0.0 3.0 0.00 0.00 0.00 90 1013.0
20260901073531 81 30 0.0 3.0 0.00 0.00 0.00 91 1013.0
20260901073431 81 30 0.0 3.0 0.00 0.00 0.00 91 1013.1
20260901073333 81 30 0.0 3.0 0.00 0.00 0.00 91 1013.0
20260901073231 81 30 0.0 3.0 0.00 0.00 0.00 91 1013.0
20260901073131 81 30 1.0 4.0 0.00 0.00 0.00 91 1013.0
20260901073031 81 30 2.0 4.0 0.00 0.00 0.00 91 1013.1
20260901072932 81 30 2.0 4.0 0.00 0.00 0.00 91 1013.0
20260901072831 81 39 2.0 4.0 0.00 0.00 0.00 91 1013.0
20260901072731 81 39 2.0 4.0 0.00 0.00 0.00 91 1013.1
20260901072633 81 41 2.0 4.0 0.00 0.00 0.00 91 1013.1
20260901072533 81 41 2.0 4.0 0.00 0.00 0.00 91 1013.0
20260901072431 81 41 2.0 4.0 0.00 0.00 0.00 91 1013.0
20260901072331 81 41 3.0 4.0 0.00 0.00 0.00 91 1013.1
20260901072232 81 41 4.0 4.0 0.00 0.00 0.00 91 1013.2
20260901072132 81 61 4.0 4.0 0.00 0.00 0.00 91 1013.1
20260901072031 81 61 3.0 4.0 0.00 0.00 0.00 91 1013.1
20260901071931 81 61 3.0 4.0 0.00 0.00 0.00 91 1013.2
20260901071832 81 62 3.0 4.0 0.00 0.00 0.00 91 1013.1
20260901071732 81 62 2.0 4.0 0.00 0.00 0.00 91 1013.2
20260901071631 80 62 2.0 3.0 0.00 0.00 0.00 91 1013.2
20260901071532 81 63 2.0 3.0 0.00 0.00 0.00 91 1013.2
20260901071431 80 63 2.0 3.0 0.00 0.00 0.00 91 1013.1
20260901071331 80 63 2.0 3.0 0.00 0.00 0.00 91 1013.1
20260901071232 80 63 1.0 2.0 0.00 0.00 0.00 91 1013.1
20260901071131 80 63 1.0 2.0 0.00 0.00 0.00 91 1013.1
20260901071032 80 63 0.0 2.0 0.00 0.00 0.00 91 1013.2
20260901070932 80 63 0.0 2.0 0.00 0.00 0.00 91 1013.2
20260901070832 80 63 0.0 2.0 0.00 0.00 0.00 91 1013.1
20260901070732 80 63 0.0 2.0 0.00 0.00 0.00 91 1013.1
20260901070610 80 63 1.0 2.0 0.00 0.00 0.00 91 1013.2
20260901070508 80 63 1.0 2.0 0.00 0.00 0.00 91 1013.2
20260901070408 80 63 1.0 2.0 0.00 0.00 0.00 91 1013.2
20260901070306 80 63 0.0 1.0 0.00 0.00 0.00 91 1013.2
20260901070204 80 63 0.0 1.0 0.00 0.00 0.00 91 1013.2
20260901070104 80 63 0.0 0.0 0.00 0.00 0.00 91 1013.3
20260901070002 80 56 0.0 0.0 0.00 0.00 0.00 91 1013.3
20260901065903 80 56 0.0 0.0 0.00 0.00 0.00 91 1013.2
20260901065803 80 56 0.0 0.0 0.00 0.00 0.00 91 1013.3
20260901065703 81 56 0.0 0.0 0.00 0.00 0.00 91 1013.3
20260901065604 80 58 0.0 0.0 0.00 0.00 0.00 91 1013.2
20260901065502 81 58 0.0 0.0 0.00 0.00 0.00 91 1013.3
20260901065402 80 58 0.0 1.0 0.00 0.00 0.00 91 1013.3
20260901065305 81 58 0.0 1.0 0.00 0.00 0.00 91 1013.3
20260901065202 81 58 0.0 2.0 0.00 0.00 0.00 91 1013.3
20260901065103 81 58 0.0 2.0 0.00 0.00 0.00 91 1013.2
20260901065002 81 58 0.0 2.0 0.00 0.00 0.00 91 1013.3
20260901064903 81 56 0.0 2.0 0.00 0.00 0.00 91 1013.2
20260901064801 81 56 0.0 2.0 0.00 0.00 0.00 91 1013.3
20260901064703 81 56 0.0 2.0 0.00 0.00 0.00 90 1013.3
20260901064603 81 56 0.0 2.0 0.00 0.00 0.00 90 1013.3
20260901064504 81 56 0.0 2.0 0.00 0.00 0.00 90 1013.3
20260901064402 81 56 1.0 2.0 0.00 0.00 0.00 90 1013.3
20260901064302 81 55 1.0 2.0 0.00 0.00 0.00 90 1013.3
20260901064203 81 55 0.0 2.0 0.00 0.00 0.00 90 1013.3
20260901064102 81 55 0.0 2.0 0.00 0.00 0.00 90 1013.3
20260901064004 81 55 1.0 2.0 0.00 0.00 0.00 90 1013.3
20260901063903 81 55 1.0 2.0 0.00 0.00 0.00 90 1013.3
20260901063802 81 59 1.0 2.0 0.00 0.00 0.00 90 1013.4
20260901063702 81 61 1.0 2.0 0.00 0.00 0.00 90 1013.3
20260901063603 81 61 1.0 2.0 0.00 0.00 0.00 90 1013.4
20260901063504 81 61 0.0 1.0 0.00 0.00 0.00 90 1013.4
20260901063403 81 62 0.0 0.0 0.00 0.00 0.00 90 1013.4
20260901063302 81 62 0.0 0.0 0.00 0.00 0.00 90 1013.4
20260901063202 81 62 0.0 0.0 0.00 0.00 0.00 90 1013.5
20260901063103 81 62 0.0 0.0 0.00 0.00 0.00 90 1013.4
20260901063002 81 62 0.0 0.0 0.00 0.00 0.00 90 1013.4
20260901062903 81 62 0.0 0.0 0.00 0.00 0.00 89 1013.5
20260901062804 81 63 0.0 0.0 0.00 0.00 0.00 89 1013.5
20260901062702 81 63 0.0 0.0 0.00 0.00 0.00 89 1013.4
20260901062602 81 63 0.0 0.0 0.00 0.00 0.00 89 1013.4
20260901062504 82 63 0.0 0.0 0.00 0.00 0.00 89 1013.4
20260901062402 82 63 0.0 0.0 0.00 0.00 0.00 89 1013.4
20260901062309 82 63 0.0 0.0 0.00 0.00 0.00 89 1013.4
20260901062202 82 63 0.0 1.0 0.00 0.00 0.00 89 1013.3
20260901062102 82 63 0.0 1.0 0.00 0.00 0.00 89 1013.4
20260901062002 82 63 0.0 2.0 0.00 0.00 0.00 89 1013.4
20260901061903 82 63 0.0 2.0 0.00 0.00 0.00 89 1013.4
20260901061802 82 63 0.0 2.0 0.00 0.00 0.00 89 1013.4
20260901061705 82 63 0.0 2.0 0.00 0.00 0.00 89 1013.4
20260901061603 82 63 0.0 3.0 0.00 0.00 0.00 88 1013.4
20260901061505 82 63 0.0 3.0 0.00 0.00 0.00 88 1013.3
20260901061402 82 63 0.0 3.0 0.00 0.00 0.00 89 1013.3
20260901061301 82 63 1.0 3.0 0.00 0.00 0.00 88 1013.4
20260901061203 82 63 1.0 3.0 0.00 0.00 0.00 88 1013.4
20260901061102 82 63 1.0 3.0 0.00 0.00 0.00 89 1013.3
20260901061002 82 63 1.0 3.0 0.00 0.00 0.00 89 1013.4
20260901060902 82 63 2.0 3.0 0.00 0.00 0.00 89 1013.4
20260901060803 82 63 2.0 3.0 0.00 0.00 0.00 89 1013.4
20260901060702 82 63 2.0 3.0 0.00 0.00 0.00 89 1013.4
20260901060604 82 63 2.0 3.0 0.00 0.00 0.00 89 1013.3
20260901060503 82 63 2.0 3.0 0.00 0.00 0.00 88 1013.4
20260901060403 82 63 2.0 3.0 0.00 0.00 0.00 88 1013.4
20260901060304 82 63 2.0 3.0 0.00 0.00 0.00 88 1013.4
20260901060203 82 63 2.0 3.0 0.00 0.00 0.00 88 1013.4
20260901060104 82 63 2.0 3.0 0.00 0.00 0.00 88 1013.4
20260901060003 82 63 2.0 3.0 0.00 0.00 0.00 88 1013.5
20260901055903 82 63 2.0 3.0 0.00 0.00 0.00 88 1013.4
20260901055803 82 63 2.0 3.0 0.00 0.00 0.00 88 1013.4
20260901055703 82 63 2.0 3.0 0.00 0.00 0.00 88 1013.4
20260901055602 82 63 2.0 3.0 0.00 0.00 0.00 88 1013.5
20260901055503 82 63 2.0 3.0 0.00 0.00 0.00 88 1013.5
20260901055403 82 63 2.0 3.0 0.00 0.00 0.00 88 1013.5
20260901055306 82 63 2.0 3.0 0.00 0.00 0.00 88 1013.5
20260901055202 82 63 2.0 3.0 0.00 0.00 0.00 88 1013.5
20260901055103 82 63 2.0 3.0 0.00 0.00 0.00 88 1013.5
20260901055003 82 63 1.0 3.0 0.00 0.00 0.00 88 1013.5
20260901054901 82 63 0.0 3.0 0.00 0.00 0.00 88 1013.5
20260901054802 82 63 1.0 3.0 0.00 0.00 0.00 88 1013.4
20260901054702 82 63 1.0 3.0 0.00 0.00 0.00 88 1013.4
20260901054602 82 63 1.0 2.0 0.00 0.00 0.00 88 1013.5
20260901054502 82 63 1.0 2.0 0.00 0.00 0.00 88 1013.4
20260901054402 82 63 1.0 2.0 0.00 0.00 0.00 87 1013.4
20260901054302 82 65 1.0 2.0 0.00 0.00 0.00 87 1013.4
20260901054202 82 65 0.0 1.0 0.00 0.00 0.00 87 1013.4
20260901054104 82 65 0.0 1.0 0.00 0.00 0.00 87 1013.4
20260901054002 82 65 0.0 2.0 0.00 0.00 0.00 87 1013.4
20260901053901 82 65 0.0 2.0 0.00 0.00 0.00 87 1013.3
20260901053802 82 65 0.0 3.0 0.00 0.00 0.00 87 1013.4
20260901053703 83 65 0.0 3.0 0.00 0.00 0.00 87 1013.4
20260901053602 83 65 0.0 3.0 0.00 0.00 0.00 87 1013.4
20260901053502 83 65 0.0 3.0 0.00 0.00 0.00 86 1013.4
20260901053403 83 65 0.0 4.0 0.00 0.00 0.00 86 1013.3
20260901053303 83 65 0.0 4.0 0.00 0.00 0.00 86 1013.4
20260901053202 83 65 1.0 4.0 0.00 0.00 0.00 86 1013.3
20260901053103 83 65 2.0 4.0 0.00 0.00 0.00 86 1013.3
20260901053003 83 65 2.0 4.0 0.00 0.00 0.00 86 1013.3
20260901052903 83 65 2.0 4.0 0.00 0.00 0.00 86 1013.3
20260901052803 83 65 2.0 4.0 0.00 0.00 0.00 86 1013.3
20260901052703 83 65 2.0 4.0 0.00 0.00 0.00 86 1013.3
20260901052601 83 65 2.0 4.0 0.00 0.00 0.00 86 1013.3
20260901052503 83 65 2.0 4.0 0.00 0.00 0.00 86 1013.3
20260901052404 83 65 2.0 4.0 0.00 0.00 0.00 86 1013.4
20260901052301 83 65 2.0 4.0 0.00 0.00 0.00 86 1013.3
20260901052202 83 65 2.0 4.0 0.00 0.00 0.00 86 1013.4
20260901052101 83 65 2.0 4.0 0.00 0.00 0.00 86 1013.3
20260901052004 83 65 3.0 4.0 0.00 0.00 0.00 86 1013.4
20260901051902 83 65 3.0 4.0 0.00 0.00 0.00 86 1013.3
20260901051803 83 65 2.0 5.0 0.00 0.00 0.00 86 1013.3
20260901051703 83 68 2.0 5.0 0.00 0.00 0.00 86 1013.3
20260901051602 83 72 3.0 5.0 0.00 0.00 0.00 86 1013.3
20260901051502 83 72 2.0 5.0 0.00 0.00 0.00 86 1013.3
20260901051404 83 79 2.0 5.0 0.00 0.00 0.00 86 1013.3
20260901051303 83 83 2.0 5.0 0.00 0.00 0.00 86 1013.2
20260901051203 83 83 2.0 5.0 0.00 0.00 0.00 86 1013.3
20260901051102 83 85 2.0 5.0 0.00 0.00 0.00 86 1013.3
20260901051001 83 86 4.0 5.0 0.00 0.00 0.00 86 1013.3
20260901050903 83 86 3.0 5.0 0.00 0.00 0.00 85 1013.3
20260901050802 83 90 2.0 4.0 0.00 0.00 0.00 85 1013.3
20260901050703 83 44 2.0 4.0 0.00 0.00 0.00 85 1013.2
20260901050602 83 42 2.0 4.0 0.00 0.00 0.00 85 1013.2
20260901050503 83 42 2.0 4.0 0.00 0.00 0.00 85 1013.2
20260901050402 83 42 2.0 4.0 0.00 0.00 0.00 85 1013.2
20260901050302 83 42 2.0 4.0 0.00 0.00 0.00 85 1013.2
20260901050203 83 42 2.0 4.0 0.00 0.00 0.00 85 1013.2
20260901050004 83 41 2.0 3.0 0.00 0.00 0.00 85 1013.2
20260901045902 83 41 2.0 3.0 0.00 0.00 0.00 85 1013.2
20260901045802 83 41 2.0 3.0 0.00 0.00 0.00 85 1013.1
20260901045702 83 41 2.0 3.0 0.00 0.00 0.00 85 1013.2
20260901045604 83 41 2.0 3.0 0.00 0.00 0.00 85 1013.2
20260901045502 83 41 2.0 3.0 0.00 0.00 0.00 84 1013.2
20260901045403 83 41 2.0 3.0 0.00 0.00 0.00 84 1013.2
20260901045306 83 41 2.0 4.0 0.00 0.00 0.00 84 1013.1
20260901045202 83 41 1.0 4.0 0.00 0.00 0.00 84 1013.2
20260901045101 83 41 1.0 4.0 0.00 0.00 0.00 84 1013.1
20260901045003 83 41 2.0 4.0 0.00 0.00 0.00 84 1013.2
20260901044902 84 41 2.0 4.0 0.00 0.00 0.00 84 1013.1
20260901044802 84 41 3.0 4.0 0.00 0.00 0.00 84 1013.1
20260901044703 84 41 3.0 4.0 0.00 0.00 0.00 84 1013.1
20260901044604 84 41 2.0 4.0 0.00 0.00 0.00 84 1013.0
20260901044505 84 41 3.0 4.0 0.00 0.00 0.00 83 1013.0
20260901044402 84 41 2.0 4.0 0.00 0.00 0.00 83 1013.0
20260901044303 84 39 2.0 4.0 0.00 0.00 0.00 83 1013.0
20260901044202 84 39 2.0 5.0 0.00 0.00 0.00 83 1013.0
20260901044102 84 39 3.0 5.0 0.00 0.00 0.00 83 1013.0
20260901044003 84 39 3.0 5.0 0.00 0.00 0.00 83 1013.0
20260901043903 84 38 3.0 5.0 0.00 0.00 0.00 83 1013.1
20260901043802 84 38 2.0 5.0 0.00 0.00 0.00 83 1013.1
20260901043702 84 38 3.0 5.0 0.00 0.00 0.00 83 1013.1
20260901043604 84 38 3.0 5.0 0.00 0.00 0.00 83 1013.0
20260901043503 84 38 3.0 5.0 0.00 0.00 0.00 83 1013.1
20260901043402 84 56 3.0 5.0 0.00 0.00 0.00 82 1013.1
20260901043303 84 56 3.0 5.0 0.00 0.00 0.00 82 1013.1
20260901043203 84 58 3.0 5.0 0.00 0.00 0.00 82 1013.1
20260901043103 84 59 3.0 5.0 0.00 0.00 0.00 82 1013.2
20260901043002 84 59 3.0 5.0 0.00 0.00 0.00 82 1013.2
20260901042903 84 59 3.0 5.0 0.00 0.00 0.00 82 1013.2
20260901042802 84 61 3.0 5.0 0.00 0.00 0.00 82 1013.3
20260901042702 84 61 3.0 5.0 0.00 0.00 0.00 82 1013.2
20260901042601 84 61 3.0 5.0 0.00 0.00 0.00 82 1013.2
20260901042503 84 80 3.0 5.0 0.00 0.00 0.00 81 1013.2
20260901042402 84 65 3.0 5.0 0.00 0.00 0.00 81 1013.2
20260901042305 84 62 3.0 5.0 0.00 0.00 0.00 81 1013.3
20260901042204 85 61 3.0 5.0 0.00 0.00 0.00 81 1013.2
20260901042102 85 61 3.0 5.0 0.00 0.00 0.00 81 1013.2
20260901042004 85 61 3.0 5.0 0.00 0.00 0.00 80 1013.1
20260901041902 85 61 3.0 5.0 0.00 0.00 0.00 80 1013.1
20260901041802 85 62 4.0 5.0 0.00 0.00 0.00 80 1013.2
20260901041703 85 62 4.0 5.0 0.00 0.00 0.00 80 1013.2
20260901041603 85 61 4.0 5.0 0.00 0.00 0.00 80 1013.3
20260901041504 85 62 3.0 5.0 0.00 0.00 0.00 80 1013.2
20260901041402 85 75 2.0 5.0 0.00 0.00 0.00 80 1013.2
20260901041303 85 73 2.0 5.0 0.00 0.00 0.00 79 1013.2
20260901041203 85 73 3.0 5.0 0.00 0.00 0.00 79 1013.3
20260901041101 85 73 3.0 5.0 0.00 0.00 0.00 79 1013.2
20260901041003 85 73 3.0 5.0 0.00 0.00 0.00 79 1013.3
20260901040903 85 75 3.0 5.0 0.00 0.00 0.00 79 1013.3
20260901040802 85 73 3.0 6.0 0.00 0.00 0.00 79 1013.3
20260901040701 85 73 3.0 7.0 0.00 0.00 0.00 79 1013.3
20260901040559 85 73 4.0 7.0 0.00 0.00 0.00 79 1013.3
20260901040459 85 89 3.0 7.0 0.00 0.00 0.00 79 1013.3
20260901040355 85 87 3.0 7.0 0.00 0.00 0.00 79 1013.3
20260901040254 85 72 3.0 7.0 0.00 0.00 0.00 79 1013.3
20260901040153 85 83 3.0 7.0 0.00 0.00 0.00 79 1013.2
20260901040053 85 83 4.0 7.0 0.00 0.00 0.00 79 1013.3
20260901035951 85 82 4.0 7.0 0.00 0.00 0.00 79 1013.2
20260901035851 85 76 5.0 7.0 0.00 0.00 0.00 79 1013.2
20260901035751 85 54 4.0 7.0 0.00 0.00 0.00 79 1013.2
20260901035652 85 82 3.0 7.0 0.00 0.00 0.00 79 1013.2
20260901035550 85 76 3.0 7.0 0.00 0.00 0.00 79 1013.2
20260901035450 85 82 4.0 7.0 0.00 0.00 0.00 79 1013.1
20260901035352 85 82 4.0 7.0 0.00 0.00 0.00 79 1013.1
20260901035251 85 102 4.0 7.0 0.00 0.00 0.00 79 1013.1
20260901035150 85 118 4.0 7.0 0.00 0.00 0.00 79 1013.1
20260901035050 85 89 4.0 7.0 0.00 0.00 0.00 79 1013.2
20260901034950 85 103 3.0 7.0 0.00 0.00 0.00 79 1013.1
20260901034852 85 72 4.0 7.0 0.00 0.00 0.00 79 1013.1
20260901034750 85 97 5.0 7.0 0.00 0.00 0.00 79 1013.1
20260901034651 85 89 5.0 7.0 0.00 0.00 0.00 79 1013.0
20260901034550 85 90 4.0 6.0 0.00 0.00 0.00 79 1013.1
20260901034451 85 82 4.0 6.0 0.00 0.00 0.00 78 1013.1
20260901034352 85 97 4.0 6.0 0.00 0.00 0.00 78 1013.0
20260901034250 85 100 4.0 6.0 0.00 0.00 0.00 78 1013.1
20260901034149 85 110 4.0 6.0 0.00 0.00 0.00 78 1013.0
20260901034050 85 113 4.0 6.0 0.00 0.00 0.00 78 1013.0
20260901033952 85 87 4.0 6.0 0.00 0.00 0.00 78 1013.0
20260901033851 85 107 4.0 5.0 0.00 0.00 0.00 78 1013.0
20260901033751 85 86 4.0 6.0 0.00 0.00 0.00 78 1013.0
20260901033650 85 104 4.0 6.0 0.00 0.00 0.00 78 1012.9
20260901033550 85 117 3.0 6.0 0.00 0.00 0.00 78 1012.9
20260901033450 85 99 4.0 6.0 0.00 0.00 0.00 78 1013.0
20260901033350 85 107 4.0 6.0 0.00 0.00 0.00 78 1012.9
20260901033251 85 103 4.0 6.0 0.00 0.00 0.00 78 1012.8
20260901033151 85 117 4.0 6.0 0.00 0.00 0.00 78 1012.9
20260901033049 85 110 4.0 6.0 0.00 0.00 0.00 78 1012.9
20260901032950 85 109 4.0 6.0 0.00 0.00 0.00 78 1012.9
20260901032849 85 114 4.0 6.0 0.00 0.00 0.00 78 1012.9
20260901032749 85 110 4.0 5.0 0.00 0.00 0.00 78 1012.9
20260901032650 85 110 3.0 5.0 0.00 0.00 0.00 78 1012.9
20260901032550 85 106 3.0 5.0 0.00 0.00 0.00 78 1012.8
20260901032449 85 113 3.0 5.0 0.00 0.00 0.00 78 1012.8
20260901032349 85 109 4.0 5.0 0.00 0.00 0.00 78 1012.8
20260901032249 85 109 4.0 5.0 0.00 0.00 0.00 78 1012.9
20260901032149 85 111 4.0 5.0 0.00 0.00 0.00 78 1012.8
20260901032050 85 120 4.0 5.0 0.00 0.00 0.00 78 1012.9
20260901031949 85 114 3.0 5.0 0.00 0.00 0.00 78 1012.8
20260901031851 85 110 3.0 5.0 0.00 0.00 0.00 79 1012.9
20260901031749 85 107 3.0 5.0 0.00 0.00 0.00 79 1012.9
20260901031649 85 109 4.0 5.0 0.00 0.00 0.00 79 1012.8
20260901031550 85 99 3.0 5.0 0.00 0.00 0.00 79 1012.8
20260901031450 85 104 3.0 5.0 0.00 0.00 0.00 79 1012.8
20260901031349 85 113 3.0 5.0 0.00 0.00 0.00 79 1012.9
20260901031249 85 111 3.0 5.0 0.00 0.00 0.00 79 1012.9
20260901031152 85 111 4.0 5.0 0.00 0.00 0.00 79 1012.9
20260901031050 85 111 3.0 4.0 0.00 0.00 0.00 79 1012.9
20260901030949 85 114 3.0 4.0 0.00 0.00 0.00 79 1012.9
20260901030850 85 113 3.0 4.0 0.00 0.00 0.00 79 1012.8
20260901030750 85 116 2.0 4.0 0.00 0.00 0.00 79 1012.8
20260901030649 85 128 1.0 2.0 0.00 0.00 0.00 79 1012.8
20260901030549 85 134 1.0 3.0 0.00 0.00 0.00 80 1012.7
20260901030450 85 134 1.0 3.0 0.00 0.00 0.00 79 1012.7
20260901030349 85 135 1.0 3.0 0.00 0.00 0.00 79 1012.7
20260901030250 85 135 2.0 3.0 0.00 0.00 0.00 79 1012.6
20260901030149 85 135 2.0 3.0 0.00 0.00 0.00 79 1012.6
20260901030049 85 135 2.0 3.0 0.00 0.00 0.00 79 1012.5
20260901025949 85 135 1.0 3.0 0.00 0.00 0.00 79 1012.6
20260901025850 85 135 1.0 3.0 0.00 0.00 0.00 79 1012.6
20260901025751 85 135 2.0 3.0 0.00 0.00 0.00 79 1012.5
20260901025649 85 135 1.0 3.0 0.00 0.00 0.00 79 1012.5
20260901025548 85 134 0.0 2.0 0.00 0.00 0.00 79 1012.5
20260901025449 85 134 0.0 2.0 0.00 0.00 0.00 79 1012.4
20260901025348 85 0 0.0 2.0 0.00 0.00 0.00 79 1012.4
20260901025250 85 58 1.0 2.0 0.00 0.00 0.00 79 1012.4
20260901025151 85 0 1.0 2.0 0.00 0.00 0.00 79 1012.3
20260901025049 85 0 1.0 2.0 0.00 0.00 0.00 79 1012.3
20260901024949 85 0 0.0 2.0 0.00 0.00 0.00 79 1012.4
20260901024849 85 0 0.0 2.0 0.00 0.00 0.00 79 1012.3
20260901024751 85 0 0.0 2.0 0.00 0.00 0.00 79 1012.2
20260901024648 85 59 0.0 2.0 0.00 0.00 0.00 79 1012.2
20260901024550 85 61 0.0 2.0 0.00 0.00 0.00 79 1012.1
20260901024449 85 61 1.0 3.0 0.00 0.00 0.00 79 1012.1
20260901024349 85 61 1.0 3.0 0.00 0.00 0.00 79 1012.1
20260901024250 85 0 1.0 3.0 0.00 0.00 0.00 79 1012.1
20260901024149 85 0 0.0 3.0 0.00 0.00 0.00 79 1012.1
20260901024050 85 62 0.0 3.0 0.00 0.00 0.00 79 1012.1
20260901023949 85 62 0.0 3.0 0.00 0.00 0.00 79 1012.1
20260901023849 85 62 0.0 3.0 0.00 0.00 0.00 79 1012.1
20260901023749 85 0 1.0 3.0 0.00 0.00 0.00 79 1012.1
20260901023648 85 0 1.0 3.0 0.00 0.00 0.00 79 1012.1
20260901023548 85 0 2.0 3.0 0.00 0.00 0.00 79 1012.1
20260901023448 85 0 1.0 3.0 0.00 0.00 0.00 79 1012.1
20260901023349 85 62 2.0 3.0 0.00 0.00 0.00 79 1012.1
20260901023248 85 62 2.0 3.0 0.00 0.00 0.00 79 1012.1
20260901023148 85 61 2.0 3.0 0.00 0.00 0.00 78 1012.2
20260901023049 85 62 2.0 3.0 0.00 0.00 0.00 78 1012.1
20260901022948 85 59 2.0 3.0 0.00 0.00 0.00 78 1012.1
20260901022849 85 59 2.0 3.0 0.00 0.00 0.00 78 1012.1
20260901022748 85 59 2.0 3.0 0.00 0.00 0.00 78 1012.1
20260901022650 85 59 1.0 3.0 0.00 0.00 0.00 78 1012.0
20260901022549 85 0 2.0 3.0 0.00 0.00 0.00 78 1012.0
20260901022449 85 59 2.0 3.0 0.00 0.00 0.00 78 1012.0
20260901022349 85 59 1.0 3.0 0.00 0.00 0.00 78 1012.1
20260901022248 85 59 2.0 3.0 0.00 0.00 0.00 78 1012.0
20260901022148 85 59 2.0 3.0 0.00 0.00 0.00 78 1012.0
20260901022047 85 0 1.0 3.0 0.00 0.00 0.00 78 1012.1
20260901021949 85 59 1.0 3.0 0.00 0.00 0.00 78 1012.0
20260901021849 85 59 2.0 3.0 0.00 0.00 0.00 78 1012.1
20260901021749 85 59 2.0 3.0 0.00 0.00 0.00 78 1012.0
20260901021648 85 59 1.0 3.0 0.00 0.00 0.00 78 1012.0
20260901021548 85 59 1.0 3.0 0.00 0.00 0.00 78 1011.9
20260901021448 85 61 0.0 3.0 0.00 0.00 0.00 78 1012.0
20260901021348 85 59 1.0 3.0 0.00 0.00 0.00 78 1012.0
20260901021249 85 59 2.0 3.0 0.00 0.00 0.00 78 1011.9
20260901021148 85 61 2.0 3.0 0.00 0.00 0.00 78 1011.9
20260901021048 85 0 2.0 3.0 0.00 0.00 0.00 78 1011.9
20260901020949 85 59 1.0 3.0 0.00 0.00 0.00 78 1011.8
20260901020848 85 59 1.0 3.0 0.00 0.00 0.00 78 1011.8
20260901020748 85 59 1.0 3.0 0.00 0.00 0.00 78 1011.9
20260901020648 85 61 2.0 3.0 0.00 0.00 0.00 78 1011.8
20260901020549 85 58 2.0 3.0 0.00 0.00 0.00 78 1011.8
20260901020447 86 59 2.0 3.0 0.00 0.00 0.00 78 1011.9
20260901020345 85 58 2.0 3.0 0.00 0.00 0.00 78 1011.8
20260901020243 85 59 2.0 3.0 0.00 0.00 0.00 78 1011.8
20260901020141 85 58 1.0 3.0 0.00 0.00 0.00 78 1011.8
20260901020040 85 58 1.0 3.0 0.00 0.00 0.00 78 1011.8
20260901015939 85 59 1.0 3.0 0.00 0.00 0.00 78 1011.8
20260901015838 86 59 2.0 3.0 0.00 0.00 0.00 78 1011.7
20260901015736 86 69 2.0 3.0 0.00 0.00 0.00 78 1011.8
20260901015632 86 69 1.0 3.0 0.00 0.00 0.00 78 1011.7
20260901015531 86 63 1.0 3.0 0.00 0.00 0.00 78 1011.7
20260901015431 86 65 1.0 3.0 0.00 0.00 0.00 78 1011.7
20260901015332 86 63 1.0 3.0 0.00 0.00 0.00 78 1011.7
20260901015231 86 63 2.0 3.0 0.00 0.00 0.00 77 1011.7
20260901015132 86 63 2.0 3.0 0.00 0.00 0.00 77 1011.7
20260901015032 86 61 2.0 3.0 0.00 0.00 0.00 77 1011.7
20260901014931 86 62 2.0 3.0 0.00 0.00 0.00 77 1011.6
20260901014831 86 63 1.0 3.0 0.00 0.00 0.00 77 1011.7
20260901014731 86 69 1.0 3.0 0.00 0.00 0.00 77 1011.6
20260901014631 86 71 1.0 3.0 0.00 0.00 0.00 76 1011.6
20260901014531 86 71 0.0 4.0 0.00 0.00 0.00 76 1011.6
20260901014431 86 71 0.0 4.0 0.00 0.00 0.00 76 1011.6
20260901014331 86 73 0.0 4.0 0.00 0.00 0.00 76 1011.6
20260901014232 87 73 0.0 4.0 0.00 0.00 0.00 76 1011.5
20260901014133 87 73 0.0 4.0 0.00 0.00 0.00 75 1011.5
20260901014031 87 73 1.0 4.0 0.00 0.00 0.00 75 1011.5
20260901013931 87 72 2.0 4.0 0.00 0.00 0.00 75 1011.4
20260901013831 87 73 2.0 4.0 0.00 0.00 0.00 75 1011.5
20260901013733 87 87 2.0 4.0 0.00 0.00 0.00 75 1011.5
20260901013631 87 0 2.0 4.0 0.00 0.00 0.00 75 1011.6
20260901013532 87 89 1.0 4.0 0.00 0.00 0.00 75 1011.5
20260901013432 87 90 1.0 4.0 0.00 0.00 0.00 75 1011.6
20260901013332 87 92 2.0 4.0 0.00 0.00 0.00 75 1011.6
20260901013231 87 93 2.0 4.0 0.00 0.00 0.00 75 1011.6
20260901013130 87 0 2.0 3.0 0.00 0.00 0.00 75 1011.6
20260901013031 87 93 2.0 3.0 0.00 0.00 0.00 75 1011.5
20260901012931 87 94 1.0 3.0 0.00 0.00 0.00 75 1011.5
20260901012832 87 94 1.0 3.0 0.00 0.00 0.00 75 1011.5
20260901012730 87 97 1.0 3.0 0.00 0.00 0.00 75 1011.6
20260901012631 87 69 0.0 3.0 0.00 0.00 0.00 75 1011.5
20260901012531 87 69 0.0 3.0 0.00 0.00 0.00 75 1011.5
20260901012433 87 69 0.0 3.0 0.00 0.00 0.00 75 1011.4
20260901012331 87 71 0.0 3.0 0.00 0.00 0.00 75 1011.6
20260901012231 87 71 1.0 4.0 0.00 0.00 0.00 75 1011.5
20260901012132 87 71 1.0 4.0 0.00 0.00 0.00 75 1011.5
20260901012032 87 85 1.0 4.0 0.00 0.00 0.00 75 1011.5
20260901011931 87 86 1.0 4.0 0.00 0.00 0.00 75 1011.5
20260901011831 87 75 1.0 4.0 0.00 0.00 0.00 75 1011.5
20260901011732 87 72 2.0 4.0 0.00 0.00 0.00 75 1011.5
20260901011631 87 68 2.0 4.0 0.00 0.00 0.00 74 1011.6
20260901011531 87 68 2.0 4.0 0.00 0.00 0.00 75 1011.6
20260901011429 87 66 2.0 4.0 0.00 0.00 0.00 74 1011.6
20260901011326 87 71 3.0 4.0 0.00 0.00 0.00 74 1011.6
20260901011225 87 68 2.0 4.0 0.00 0.00 0.00 74 1011.6
20260901011123 87 80 1.0 4.0 0.00 0.00 0.00 74 1011.5
20260901011022 87 80 2.0 4.0 0.00 0.00 0.00 74 1011.5
20260901010922 87 66 2.0 4.0 0.00 0.00 0.00 74 1011.5
20260901010819 87 69 2.0 4.0 0.00 0.00 0.00 74 1011.5
20260901010718 87 128 3.0 5.0 0.00 0.00 0.00 74 1011.6
20260901010616 87 102 3.0 5.0 0.00 0.00 0.00 74 1011.7
20260901010514 87 142 2.0 5.0 0.00 0.00 0.00 74 1011.5
20260901010412 87 131 1.0 5.0 0.00 0.00 0.00 74 1011.5
20260901010311 87 135 2.0 5.0 0.00 0.00 0.00 74 1011.6
20260901010210 87 133 2.0 5.0 0.00 0.00 0.00 73 1011.6
20260901010108 87 161 1.0 5.0 0.00 0.00 0.00 73 1011.6
20260901010007 87 166 1.0 5.0 0.00 0.00 0.00 73 1011.6
20260901005906 87 179 2.0 5.0 0.00 0.00 0.00 73 1011.6
20260901005804 88 180 3.0 5.0 0.00 0.00 0.00 73 1011.7
20260901005704 88 161 3.0 6.0 0.00 0.00 0.00 73 1011.6
20260901005602 88 162 3.0 6.0 0.00 0.00 0.00 73 1011.6
20260901005502 88 144 3.0 6.0 0.00 0.00 0.00 73 1011.6
20260901005402 88 128 3.0 6.0 0.00 0.00 0.00 73 1011.6
20260901005306 88 138 3.0 6.0 0.00 0.00 0.00 73 1011.6
20260901005202 88 140 3.0 6.0 0.00 0.00 0.00 73 1011.6
20260901005103 88 148 3.0 7.0 0.00 0.00 0.00 73 1011.6
20260901005004 88 138 3.0 7.0 0.00 0.00 0.00 73 1011.6
20260901004901 88 166 3.0 7.0 0.00 0.00 0.00 73 1011.7
20260901004802 88 159 3.0 7.0 0.00 0.00 0.00 73 1011.7
20260901004703 88 87 2.0 7.0 0.00 0.00 0.00 73 1011.6
20260901004602 88 145 3.0 7.0 0.00 0.00 0.00 73 1011.7
20260901004502 88 144 2.0 7.0 0.00 0.00 0.00 72 1011.7
20260901004403 88 165 2.0 7.0 0.00 0.00 0.00 72 1011.6
20260901004302 88 176 4.0 7.0 0.00 0.00 0.00 72 1011.7
20260901004203 88 173 4.0 7.0 0.00 0.00 0.00 72 1011.6
20260901004102 88 172 2.0 6.0 0.00 0.00 0.00 72 1011.7
20260901004003 88 161 2.0 6.0 0.00 0.00 0.00 72 1011.7
20260901003902 88 140 3.0 6.0 0.00 0.00 0.00 72 1011.7
20260901003803 88 154 2.0 6.0 0.00 0.00 0.00 72 1011.6
20260901003703 89 168 2.0 6.0 0.00 0.00 0.00 72 1011.7
20260901003602 89 148 3.0 6.0 0.00 0.00 0.00 72 1011.6
20260901003502 89 134 3.0 6.0 0.00 0.00 0.00 71 1011.6
20260901003404 89 220 3.0 6.0 0.00 0.00 0.00 71 1011.6
20260901003302 89 148 4.0 6.0 0.00 0.00 0.00 71 1011.6
20260901003204 89 128 3.0 5.0 0.00 0.00 0.00 71 1011.7
20260901003103 89 147 2.0 5.0 0.00 0.00 0.00 71 1011.6
20260901003004 89 169 2.0 5.0 0.00 0.00 0.00 71 1011.7
20260901002902 89 118 2.0 5.0 0.00 0.00 0.00 71 1011.6
20260901002802 89 120 2.0 5.0 0.00 0.00 0.00 71 1011.7
20260901002704 89 161 2.0 5.0 0.00 0.00 0.00 70 1011.7
20260901002603 89 130 2.0 5.0 0.00 0.00 0.00 70 1011.7
20260901002503 89 110 2.0 5.0 0.00 0.00 0.00 70 1011.7
20260901002402 89 131 2.0 5.0 0.00 0.00 0.00 70 1011.7
20260901002305 89 127 2.0 5.0 0.00 0.00 0.00 70 1011.6
20260901002202 89 145 1.0 5.0 0.00 0.00 0.00 70 1011.6
20260901002102 90 144 2.0 5.0 0.00 0.00 0.00 70 1011.6
20260901002003 90 125 3.0 5.0 0.00 0.00 0.00 70 1011.6
20260901001903 90 162 2.0 5.0 0.00 0.00 0.00 70 1011.5
20260901001802 90 233 2.0 5.0 0.00 0.00 0.00 70 1011.6
20260901001702 90 257 3.0 5.0 0.00 0.00 0.00 69 1011.5
20260901001602 90 158 2.0 5.0 0.00 0.00 0.00 69 1011.6
20260901001503 90 183 1.0 6.0 0.00 0.00 0.00 70 1011.6
20260901001402 90 114 2.0 6.0 0.00 0.00 0.00 70 1011.6
20260901001303 90 117 2.0 6.0 0.00 0.00 0.00 70 1011.6
20260901001202 90 107 2.0 6.0 0.00 0.00 0.00 70 1011.6
20260901001102 90 135 2.0 6.0 0.00 0.00 0.00 69 1011.6
20260901001004 90 118 2.0 6.0 0.00 0.00 0.00 69 1011.6
20260901000903 90 147 2.0 6.0 0.00 0.00 0.00 69 1011.6
20260901000801 90 193 2.0 6.0 0.00 0.00 0.00 69 1011.6
20260901000703 90 196 4.0 6.0 0.00 0.00 0.00 69 1011.6
20260901000603 90 124 4.0 6.0 0.00 0.00 0.00 68 1011.6
20260901000503 90 168 3.0 6.0 0.00 0.00 0.00 69 1011.7
20260901000402 91 173 3.0 6.0 0.00 0.00 0.00 69 1011.6
20260901000303 91 141 2.0 5.0 0.00 0.00 0.00 69 1011.6
20260901000203 91 175 1.0 5.0 0.00 0.00 0.00 69 1011.6
20260901000103 90 148 1.0 5.0 0.00 0.00 0.00 69 1011.6
20260901000002 90 131 2.0 5.0 0.00 0.00 0.00 69 1011.6
20260831235903 90 149 2.0 5.0 0.00 0.00 0.00 69 1011.7
20260831235803 90 179 2.0 5.0 0.00 0.00 0.00 69 1011.6
20260831235702 90 90 3.0 5.0 0.00 0.00 0.00 69 1011.7
20260831235602 90 135 2.0 5.0 0.00 0.00 0.00 69 1011.7
20260831235502 90 137 1.0 7.0 0.00 0.00 0.00 69 1011.6
20260831235401 90 121 1.0 7.0 0.00 0.00 0.00 69 1011.6
20260831235306 90 134 2.0 7.0 0.00 0.00 0.00 69 1011.7
20260831235203 90 138 2.0 7.0 0.00 0.00 0.00 69 1011.7
20260831235103 90 158 3.0 7.0 0.00 0.00 0.00 69 1011.7
20260831235002 90 204 3.0 7.0 0.00 0.00 0.00 69 1011.6
20260831234904 90 188 2.0 7.0 0.00 0.00 0.00 69 1011.7
20260831234802 90 171 2.0 7.0 0.00 0.00 0.00 69 1011.7
20260831234702 90 190 4.0 7.0 0.00 0.00 0.00 69 1011.7
20260831234604 90 207 5.0 7.0 0.00 0.00 0.00 69 1011.6
20260831234503 91 212 4.0 7.0 0.00 0.00 0.00 69 1011.7
20260831234404 91 219 4.0 7.0 0.00 0.00 0.00 69 1011.6
20260831234302 91 155 4.0 7.0 0.00 0.00 0.00 69 1011.7
20260831234202 91 176 4.0 7.0 0.00 0.00 0.00 69 1011.6
20260831234103 91 180 4.0 7.0 0.00 0.00 0.00 69 1011.6
20260831234002 91 224 4.0 6.0 0.00 0.00 0.00 69 1011.6
20260831233903 91 190 4.0 6.0 0.00 0.00 0.00 68 1011.6
20260831233802 91 207 4.0 7.0 0.00 0.00 0.00 68 1011.6
20260831233703 91 212 3.0 7.0 0.00 0.00 0.00 68 1011.6
20260831233602 91 183 2.0 7.0 0.00 0.00 0.00 69 1011.7
20260831233503 91 138 2.0 7.0 0.00 0.00 0.00 68 1011.6
20260831233403 91 152 2.0 7.0 0.00 0.00 0.00 69 1011.7
20260831233301 91 155 2.0 7.0 0.00 0.00 0.00 68 1011.6
20260831233203 91 158 2.0 7.0 0.00 0.00 0.00 68 1011.7
20260831233101 91 138 3.0 7.0 0.00 0.00 0.00 68 1011.6
20260831233004 91 134 4.0 7.0 0.00 0.00 0.00 68 1011.7
20260831232903 91 179 3.0 9.0 0.00 0.00 0.00 68 1011.7
20260831232802 91 168 2.0 9.0 0.00 0.00 0.00 68 1011.7
20260831232703 91 175 2.0 9.0 0.00 0.00 0.00 69 1011.7
20260831232603 91 179 3.0 9.0 0.00 0.00 0.00 68 1011.7
20260831232504 91 138 4.0 9.0 0.00 0.00 0.00 68 1011.7
20260831232402 91 154 4.0 9.0 0.00 0.00 0.00 68 1011.7
20260831232305 91 149 4.0 9.0 0.00 0.00 0.00 68 1011.7
20260831232204 91 152 4.0 9.0 0.00 0.00 0.00 68 1011.7
20260831232104 91 134 4.0 9.0 0.00 0.00 0.00 68 1011.6
20260831232001 91 141 4.0 9.0 0.00 0.00 0.00 68 1011.6
20260831231902 91 135 4.0 9.0 0.00 0.00 0.00 68 1011.5
20260831231802 91 133 4.0 9.0 0.00 0.00 0.00 68 1011.5
20260831231702 92 141 4.0 9.0 0.00 0.00 0.00 68 1011.6
20260831231602 92 127 4.0 7.0 0.00 0.00 0.00 67 1011.6
20260831231503 92 135 3.0 7.0 0.00 0.00 0.00 67 1011.6
20260831231402 92 152 2.0 7.0 0.00 0.00 0.00 67 1011.6
20260831231302 92 202 2.0 7.0 0.00 0.00 0.00 67 1011.6
20260831231204 92 131 2.0 9.0 0.00 0.00 0.00 67 1011.6
20260831231102 92 145 4.0 9.0 0.00 0.00 0.00 67 1011.6
20260831231002 92 145 4.0 9.0 0.00 0.00 0.00 67 1011.5
20260831230859 92 140 3.0 9.0 0.00 0.00 0.00 67 1011.5
20260831230759 92 140 3.0 10.0 0.00 0.00 0.00 67 1011.5
20260831230656 92 152 2.0 10.0 0.00 0.00 0.00 67 1011.5
20260831230555 92 141 3.0 10.0 0.00 0.00 0.00 66 1011.5
20260831230451 92 164 3.0 10.0 0.00 0.00 0.00 66 1011.5
20260831230348 92 135 4.0 10.0 0.00 0.00 0.00 66 1011.5
20260831230247 92 161 4.0 10.0 0.00 0.00 0.00 66 1011.5
20260831230145 92 130 3.0 10.0 0.00 0.00 0.00 66 1011.5
20260831230044 92 138 4.0 10.0 0.00 0.00 0.00 66 1011.5
20260831225944 92 154 5.0 10.0 0.00 0.00 0.00 66 1011.6
20260831225844 92 173 5.0 10.0 0.00 0.00 0.00 66 1011.5
20260831225744 92 172 4.0 10.0 0.00 0.00 0.00 66 1011.5
20260831225644 92 197 4.0 9.0 0.00 0.00 0.00 65 1011.5
20260831225543 92 178 3.0 9.0 0.00 0.00 0.00 65 1011.6
20260831225443 92 162 4.0 9.0 0.00 0.00 0.00 65 1011.6
20260831225344 92 144 4.0 9.0 0.00 0.00 0.00 65 1011.6
20260831225244 92 134 4.0 9.0 0.00 0.00 0.00 65 1011.6
20260831225145 92 142 4.0 9.0 0.00 0.00 0.00 65 1011.6
20260831225044 92 124 4.0 9.0 0.00 0.00 0.00 65 1011.6
20260831224944 92 151 3.0 9.0 0.00 0.00 0.00 65 1011.7
20260831224845 92 80 2.0 9.0 0.00 0.00 0.00 65 1011.6
20260831224744 92 195 3.0 9.0 0.00 0.00 0.00 65 1011.6
20260831224645 92 162 4.0 9.0 0.00 0.00 0.00 65 1011.7
20260831224544 92 138 5.0 7.0 0.00 0.00 0.00 65 1011.6
20260831224445 92 128 4.0 6.0 0.00 0.00 0.00 64 1011.6
20260831224344 93 144 4.0 9.0 0.00 0.00 0.00 64 1011.7
20260831224244 93 137 4.0 9.0 0.00 0.00 0.00 64 1011.7
20260831224144 93 165 3.0 9.0 0.00 0.00 0.00 64 1011.7
20260831224044 93 104 3.0 9.0 0.00 0.00 0.00 64 1011.6
20260831223943 93 94 2.0 9.0 0.00 0.00 0.00 64 1011.7
20260831223843 92 87 2.0 9.0 0.00 0.00 0.00 65 1011.7
20260831223744 92 173 4.0 9.0 0.00 0.00 0.00 66 1011.7
20260831223644 92 176 4.0 9.0 0.00 0.00 0.00 66 1011.7
20260831223543 92 103 6.0 9.0 0.00 0.00 0.00 65 1011.7
20260831223446 92 117 5.0 9.0 0.00 0.00 0.00 65 1011.7
20260831223343 92 124 4.0 9.0 0.00 0.00 0.00 65 1011.8
20260831223244 92 154 4.0 9.0 0.00 0.00 0.00 64 1011.7
20260831223144 93 104 4.0 9.0 0.00 0.00 0.00 65 1011.7
20260831223045 93 100 4.0 9.0 0.00 0.00 0.00 65 1011.7
20260831222943 93 97 5.0 9.0 0.00 0.00 0.00 65 1011.7
20260831222843 93 109 5.0 9.0 0.00 0.00 0.00 65 1011.7
20260831222745 93 114 4.0 7.0 0.00 0.00 0.00 65 1011.6
20260831222644 92 138 4.0 6.0 0.00 0.00 0.00 65 1011.7
20260831222544 92 138 4.0 6.0 0.00 0.00 0.00 65 1011.7
20260831222445 92 100 4.0 6.0 0.00 0.00 0.00 64 1011.7
20260831222344 92 99 3.0 7.0 0.00 0.00 0.00 65 1011.7
20260831222243 92 97 4.0 7.0 0.00 0.00 0.00 64 1011.6
20260831222143 93 94 3.0 7.0 0.00 0.00 0.00 64 1011.7
20260831222044 93 86 3.0 7.0 0.00 0.00 0.00 65 1011.6
20260831221944 93 104 2.0 7.0 0.00 0.00 0.00 65 1011.6
20260831221842 92 123 2.0 7.0 0.00 0.00 0.00 65 1011.7
20260831221742 92 82 3.0 7.0 0.00 0.00 0.00 66 1011.7
20260831221643 92 159 3.0 7.0 0.00 0.00 0.00 66 1011.7
20260831221542 92 100 4.0 7.0 0.00 0.00 0.00 66 1011.7
20260831221443 92 94 5.0 7.0 0.00 0.00 0.00 66 1011.7
20260831221344 92 114 5.0 7.0 0.00 0.00 0.00 66 1011.7
20260831221243 92 109 4.0 7.0 0.00 0.00 0.00 66 1011.8
20260831221143 92 89 3.0 7.0 0.00 0.00 0.00 65 1011.8
20260831221043 92 109 4.0 7.0 0.00 0.00 0.00 66 1011.7
20260831220943 92 162 5.0 7.0 0.00 0.00 0.00 66 1011.7
20260831220842 92 121 4.0 7.0 0.00 0.00 0.00 65 1011.7
20260831220742 92 123 3.0 7.0 0.00 0.00 0.00 66 1011.7
20260831220643 92 134 3.0 9.0 0.00 0.00 0.00 67 1011.8
20260831220543 91 90 3.0 9.0 0.00 0.00 0.00 67 1011.7
20260831220442 91 90 4.0 9.0 0.00 0.00 0.00 67 1011.8
20260831220342 91 104 4.0 9.0 0.00 0.00 0.00 68 1011.8
20260831220242 91 107 5.0 9.0 0.00 0.00 0.00 67 1011.8
20260831220142 91 114 5.0 9.0 0.00 0.00 0.00 67 1011.8
20260831220042 91 117 4.0 9.0 0.00 0.00 0.00 68 1011.8
20260831215943 91 106 4.0 9.0 0.00 0.00 0.00 68 1011.9
20260831215842 91 99 4.0 9.0 0.00 0.00 0.00 67 1011.9
20260831215742 91 111 4.0 9.0 0.00 0.00 0.00 68 1011.8
20260831215643 91 114 4.0 7.0 0.00 0.00 0.00 67 1011.8
20260831215543 92 111 4.0 7.0 0.00 0.00 0.00 68 1011.8
20260831215442 91 151 3.0 7.0 0.00 0.00 0.00 69 1011.8
20260831215342 91 159 2.0 7.0 0.00 0.00 0.00 69 1011.8
20260831215244 91 130 2.0 7.0 0.00 0.00 0.00 69 1011.7
20260831215142 91 117 3.0 7.0 0.00 0.00 0.00 68 1011.8
20260831215041 91 172 4.0 9.0 0.00 0.00 0.00 69 1011.8
20260831214943 91 107 4.0 9.0 0.00 0.00 0.00 70 1011.8
20260831214842 91 134 4.0 9.0 0.00 0.00 0.00 71 1011.9
20260831214742 91 90 4.0 9.0 0.00 0.00 0.00 70 1011.9
20260831214642 91 82 5.0 9.0 0.00 0.00 0.00 71 1011.9
20260831214544 91 104 5.0 9.0 0.00 0.00 0.00 71 1011.9
20260831214442 91 107 4.0 9.0 0.00 0.00 0.00 72 1011.9
20260831214342 91 86 4.0 9.0 0.00 0.00 0.00 71 1011.9
20260831214242 91 107 6.0 9.0 0.00 0.00 0.00 71 1011.9
20260831214142 91 116 5.0 9.0 0.00 0.00 0.00 71 1011.9
20260831214042 91 111 4.0 7.0 0.00 0.00 0.00 71 1011.9
20260831213943 91 117 4.0 7.0 0.00 0.00 0.00 71 1012.0
20260831213843 91 116 3.0 7.0 0.00 0.00 0.00 70 1012.0
20260831213741 91 97 3.0 7.0 0.00 0.00 0.00 70 1012.0
20260831213641 91 159 4.0 7.0 0.00 0.00 0.00 70 1012.0
20260831213543 91 162 4.0 7.0 0.00 0.00 0.00 70 1011.9
20260831213442 91 155 4.0 7.0 0.00 0.00 0.00 70 1012.0
20260831213341 91 138 5.0 7.0 0.00 0.00 0.00 70 1012.0
20260831213241 91 144 4.0 7.0 0.00 0.00 0.00 71 1011.9
20260831213141 91 162 2.0 5.0 0.00 0.00 0.00 71 1012.0
20260831213041 91 121 0.0 4.0 0.00 0.00 0.00 72 1012.1
20260831212942 91 138 1.0 4.0 0.00 0.00 0.00 72 1012.1
20260831212842 91 138 2.0 4.0 0.00 0.00 0.00 72 1012.1
20260831212741 91 145 2.0 5.0 0.00 0.00 0.00 72 1012.1
20260831212643 90 114 2.0 5.0 0.00 0.00 0.00 72 1012.1
20260831212542 90 152 2.0 5.0 0.00 0.00 0.00 72 1012.2
20260831212442 90 123 3.0 5.0 0.00 0.00 0.00 72 1012.1
20260831212341 90 134 2.0 5.0 0.00 0.00 0.00 72 1012.2
20260831212241 90 161 2.0 5.0 0.00 0.00 0.00 72 1012.2
20260831212142 90 193 3.0 5.0 0.00 0.00 0.00 72 1012.3
20260831212041 90 152 2.0 5.0 0.00 0.00 0.00 73 1012.2
20260831211941 89 106 2.0 5.0 0.00 0.00 0.00 73 1012.2
20260831211841 89 147 3.0 5.0 0.00 0.00 0.00 73 1012.2
20260831211741 89 134 3.0 4.0 0.00 0.00 0.00 73 1012.3
20260831211642 89 131 3.0 4.0 0.00 0.00 0.00 74 1012.3
20260831211537 89 168 3.0 4.0 0.00 0.00 0.00 74 1012.3
20260831211433 89 180 2.0 4.0 0.00 0.00 0.00 75 1012.3
20260831211332 89 96 2.0 5.0 0.00 0.00 0.00 75 1012.3
20260831211230 89 169 3.0 5.0 0.00 0.00 0.00 75 1012.4
20260831211132 88 138 2.0 5.0 0.00 0.00 0.00 75 1012.4
20260831211033 88 141 2.0 5.0 0.00 0.00 0.00 75 1012.4
20260831210931 88 107 2.0 5.0 0.00 0.00 0.00 75 1012.4
20260831210831 89 141 2.0 5.0 0.00 0.00 0.00 76 1012.4
20260831210732 89 96 2.0 5.0 0.00 0.00 0.00 76 1012.4
20260831210632 89 140 2.0 5.0 0.00 0.00 0.00 76 1012.4
20260831210531 88 133 2.0 5.0 0.00 0.00 0.00 76 1012.4
20260831210434 88 151 3.0 5.0 0.00 0.00 0.00 75 1012.4
20260831210332 88 159 2.0 5.0 0.00 0.00 0.00 75 1012.4
20260831210231 88 130 2.0 4.0 0.00 0.00 0.00 76 1012.5
20260831210132 88 171 2.0 4.0 0.00 0.00 0.00 76 1012.5
20260831210031 88 183 3.0 4.0 0.00 0.00 0.00 76 1012.5
20260831205931 87 204 3.0 4.0 0.00 0.00 0.00 76 1012.5
20260831205831 87 247 2.0 4.0 0.00 0.00 0.00 77 1012.5
20260831205733 87 247 2.0 4.0 0.00 0.00 0.00 77 1012.5
20260831205631 87 189 1.0 5.0 0.00 0.00 0.00 78 1012.5
20260831205531 87 148 1.0 5.0 0.00 0.00 0.00 78 1012.6
20260831205433 87 137 0.0 5.0 0.00 0.00 0.00 78 1012.6
20260831205331 87 137 0.0 5.0 0.00 0.00 0.00 79 1012.7
20260831205231 87 137 1.0 5.0 0.00 0.00 0.00 79 1012.6
20260831205131 87 137 2.0 5.0 0.00 0.00 0.00 78 1012.6
20260831205033 87 137 2.0 5.0 0.00 0.00 0.00 78 1012.6
20260831204931 87 121 3.0 5.0 0.00 0.00 0.00 77 1012.6
20260831204832 87 124 3.0 5.0 0.00 0.00 0.00 77 1012.6
20260831204732 87 159 3.0 5.0 0.00 0.00 0.00 77 1012.6
20260831204632 87 144 2.0 5.0 0.00 0.00 0.00 77 1012.6
20260831204531 87 149 2.0 5.0 0.00 0.00 0.00 77 1012.6
20260831204431 87 130 2.0 6.0 0.00 0.00 0.00 77 1012.7
20260831204331 86 86 2.0 9.0 0.00 0.00 0.00 76 1012.7
20260831204231 86 83 2.0 9.0 0.00 0.00 0.00 76 1012.6
20260831204131 86 124 1.0 11.0 0.00 0.00 0.00 77 1012.7
20260831204032 86 99 1.0 11.0 0.00 0.00 0.00 77 1012.6
20260831203932 86 99 2.0 11.0 0.00 0.00 0.00 77 1012.6
20260831203832 86 99 3.0 11.0 0.00 0.00 0.00 77 1012.7
20260831203732 86 104 4.0 11.0 0.00 0.00 0.00 77 1012.7
20260831203632 85 72 4.0 11.0 0.00 0.00 0.00 77 1012.7
20260831203532 85 86 6.0 11.0 0.00 0.00 0.00 77 1012.7
20260831203432 85 85 6.0 11.0 0.00 0.00 0.00 78 1012.7
20260831203331 85 89 6.0 11.0 0.00 0.00 0.00 78 1012.7
20260831203230 85 104 5.0 11.0 0.00 0.00 0.00 78 1012.8
20260831203131 85 104 4.0 11.0 0.00 0.00 0.00 79 1012.8
20260831203032 85 90 4.0 11.0 0.00 0.00 0.00 80 1012.8
20260831202932 85 87 4.0 11.0 0.00 0.00 0.00 79 1012.8
20260831202832 85 93 5.0 11.0 0.00 0.00 0.00 79 1012.9
20260831202733 85 97 5.0 11.0 0.00 0.00 0.00 79 1012.9
20260831202633 85 90 5.0 11.0 0.00 0.00 0.00 79 1012.9
20260831202532 85 87 5.0 11.0 0.00 0.00 0.00 79 1012.9
20260831202430 85 94 7.0 11.0 0.00 0.00 0.00 78 1012.9
20260831202331 85 104 7.0 11.0 0.00 0.00 0.00 79 1012.9
20260831202232 85 120 4.0 12.0 0.00 0.00 0.00 80 1012.9
20260831202131 85 137 3.0 12.0 0.00 0.00 0.00 81 1012.9
20260831202032 85 80 5.0 12.0 0.00 0.00 0.00 80 1012.9
20260831201931 85 110 6.0 15.0 0.00 0.00 0.00 79 1012.9
20260831201830 85 97 7.0 15.0 0.00 0.00 0.00 79 1012.9
20260831201731 85 114 6.0 15.0 0.00 0.00 0.00 79 1013.1
20260831201633 85 93 5.0 15.0 0.00 0.00 0.00 79 1013.0
20260831201531 85 99 6.0 15.0 0.00 0.00 0.00 79 1013.1
20260831201431 85 138 7.0 15.0 0.00 0.00 0.00 79 1013.1
20260831201332 85 100 7.0 15.0 0.00 0.00 0.00 78 1013.1
20260831201230 86 78 6.0 15.0 0.00 0.00 0.00 77 1013.1
20260831201131 86 61 9.0 15.0 0.00 0.00 0.00 77 1013.1
20260831201030 87 75 9.0 15.0 0.00 0.00 0.00 76 1013.2
20260831200933 87 92 7.0 13.0 0.00 0.00 0.00 76 1013.2
20260831200832 88 116 7.0 13.0 0.00 0.00 0.00 76 1013.2
20260831200730 88 82 7.0 13.0 0.00 0.00 0.00 73 1013.1
20260831200632 89 137 6.0 12.0 0.00 0.00 0.00 72 1013.1
20260831200532 89 164 6.0 14.0 0.00 0.00 0.00 72 1013.2
20260831200430 89 110 6.0 14.0 0.00 0.00 0.00 72 1013.1
20260831200328 89 124 7.0 14.0 0.00 0.00 0.00 71 1013.2
20260831200226 90 147 6.0 14.0 0.00 0.00 0.00 71 1013.1
20260831200124 90 120 6.0 14.0 0.00 0.00 0.00 70 1013.1
20260831200023 90 171 7.0 14.0 0.00 0.00 0.00 69 1013.1
20260831195922 90 133 7.0 14.0 0.00 0.00 0.00 68 1013.1
20260831195820 91 134 7.0 14.0 0.00 0.00 0.00 68 1013.1
20260831195718 91 151 9.0 14.0 0.00 0.00 0.00 67 1013.0
20260831195617 91 130 9.0 14.0 0.00 0.00 0.00 67 1013.1
20260831195517 91 93 6.0 12.0 0.00 0.00 0.00 67 1013.1
20260831195414 91 142 5.0 12.0 0.00 0.00 0.00 67 1013.2
20260831195313 91 79 5.0 12.0 0.00 0.00 0.00 67 1013.1
20260831195212 91 127 5.0 11.0 0.00 0.00 0.00 67 1013.1
20260831195110 91 142 6.0 11.0 0.00 0.00 0.00 68 1013.1
20260831195009 91 213 5.0 11.0 0.00 0.00 0.00 68 1013.2
20260831194908 91 220 4.0 11.0 0.00 0.00 0.00 69 1013.1
20260831194806 91 135 5.0 11.0 0.00 0.00 0.00 68 1013.2
20260831194703 91 151 6.0 12.0 0.00 0.00 0.00 68 1013.1
20260831194603 91 172 5.0 12.0 0.00 0.00 0.00 69 1013.2
20260831194502 91 134 5.0 12.0 0.00 0.00 0.00 68 1013.2
20260831194402 91 147 6.0 13.0 0.00 0.00 0.00 67 1013.3
20260831194303 91 96 6.0 14.0 0.00 0.00 0.00 68 1013.2
20260831194202 92 110 6.0 15.0 0.00 0.00 0.00 67 1013.3
20260831194102 92 47 6.0 15.0 0.00 0.00 0.00 67 1013.3
20260831194003 92 217 6.0 15.0 0.00 0.00 0.00 66 1013.2
20260831193903 92 148 8.0 15.0 0.00 0.00 0.00 66 1013.2
20260831193802 92 138 7.0 15.0 0.00 0.00 0.00 65 1013.1
20260831193702 93 72 6.0 15.0 0.00 0.00 0.00 65 1013.2
20260831193604 94 124 8.0 15.0 0.00 0.00 0.00 64 1013.3
20260831193502 94 127 8.0 15.0 0.00 0.00 0.00 61 1013.3
20260831193403 95 104 9.0 15.0 0.00 0.00 0.00 60 1013.3
20260831193303 96 175 8.0 15.0 0.00 0.00 0.00 59 1013.2
20260831193202 96 226 6.0 13.0 0.00 0.00 0.00 59 1013.2
20260831193102 96 233 6.0 13.0 0.00 0.00 0.00 57 1013.2
20260831193002 96 196 3.0 7.0 0.00 0.00 0.00 56 1013.1
20260831192902 96 233 2.0 7.0 0.00 0.00 0.00 57 1013.2
20260831192802 96 276 1.0 7.0 0.00 0.00 0.00 57 1013.1
20260831192703 95 96 2.0 7.0 0.00 0.00 0.00 57 1013.2
20260831192603 95 96 3.0 7.0 0.00 0.00 0.00 57 1013.3
20260831192503 95 144 4.0 9.0 0.00 0.00 0.00 57 1013.3
20260831192402 95 172 4.0 9.0 0.00 0.00 0.00 57 1013.3
20260831192305 95 145 3.0 9.0 0.00 0.00 0.00 57 1013.3
20260831192203 95 188 2.0 9.0 0.00 0.00 0.00 58 1013.3
20260831192102 95 154 2.0 9.0 0.00 0.00 0.00 58 1013.3
20260831192003 95 133 4.0 9.0 0.00 0.00 0.00 58 1013.3
20260831191903 95 137 4.0 9.0 0.00 0.00 0.00 58 1013.3
20260831191802 95 138 4.0 9.0 0.00 0.00 0.00 58 1013.3
20260831191702 95 49 5.0 9.0 0.00 0.00 0.00 57 1013.4
20260831191603 95 92 4.0 9.0 0.00 0.00 0.00 58 1013.3
20260831191502 95 99 1.0 6.0 0.00 0.00 0.00 58 1013.2
20260831191401 94 59 1.0 6.0 0.00 0.00 0.00 57 1013.3
20260831191302 94 59 1.0 6.0 0.00 0.00 0.00 57 1013.2
20260831191203 94 59 2.0 6.0 0.00 0.00 0.00 58 1013.3
20260831191102 94 59 3.0 6.0 0.00 0.00 0.00 56 1013.3
20260831191002 94 58 4.0 6.0 0.00 0.00 0.00 56 1013.4
20260831190902 94 58 4.0 6.0 0.00 0.00 0.00 56 1013.4
20260831190803 95 49 3.0 5.0 0.00 0.00 0.00 55 1013.4
20260831190702 95 23 2.0 4.0 0.00 0.00 0.00 56 1013.4
20260831190603 94 23 3.0 6.0 0.00 0.00 0.00 56 1013.5
20260831190504 94 23 2.0 6.0 0.00 0.00 0.00 57 1013.5
20260831190401 94 72 2.0 6.0 0.00 0.00 0.00 57 1013.5
20260831190302 94 72 2.0 7.0 0.00 0.00 0.00 56 1013.5
20260831190203 94 24 1.0 7.0 0.00 0.00 0.00 56 1013.6
20260831190003 94 24 1.0 12.0 0.00 0.00 0.00 58 1013.6
20260831185904 93 39 2.0 12.0 0.00 0.00 0.00 58 1013.7
20260831185803 93 39 4.0 12.0 0.00 0.00 0.00 57 1013.6
20260831185702 94 39 4.0 12.0 0.00 0.00 0.00 57 1013.7
20260831185603 94 61 4.0 12.0 0.00 0.00 0.00 57 1013.6
20260831185504 94 49 5.0 12.0 0.00 0.00 0.00 57 1013.6
20260831185401 94 51 6.0 12.0 0.00 0.00 0.00 57 1013.7
20260831185306 94 47 6.0 12.0 0.00 0.00 0.00 57 1013.7
20260831185204 95 58 7.0 12.0 0.00 0.00 0.00 57 1013.6
20260831185103 95 17 6.0 12.0 0.00 0.00 0.00 58 1013.6
20260831185003 95 103 2.0 7.0 0.00 0.00 0.00 58 1013.7
20260831184903 94 299 1.0 6.0 0.00 0.00 0.00 58 1013.6
20260831184803 95 299 2.0 6.0 0.00 0.00 0.00 57 1013.7
20260831184702 95 259 2.0 6.0 0.00 0.00 0.00 56 1013.7
20260831184603 95 259 4.0 6.0 0.00 0.00 0.00 57 1013.7
20260831184504 95 241 3.0 6.0 0.00 0.00 0.00 57 1013.7